Time,TemperatureF,DewpointF,PressureIn,WindDirection,WindDirectionDegrees,WindSpeedMPH,WindSpeedGustMPH,Humidity,HourlyPrecipIn,Conditions,Clouds,dailyrainin,SoftwareType,DateUTC
2013-03-25 00:00:00,32.9,23.5,29.65,NNE,31,0.0,4.0,68,0.00,,,0.00,Wunderground v.1.15,2013-03-25 04:00:00,
2013-03-25 00:02:00,32.9,23.5,29.65,NNE,31,0.0,4.0,68,0.00,,,0.00,Wunderground v.1.15,2013-03-25 04:02:00,
2013-03-25 00:03:00,32.9,23.5,29.65,NNE,31,0.0,4.0,68,0.00,,,0.00,Wunderground v.1.15,2013-03-25 04:03:00,
2013-03-25 00:05:00,32.8,23.4,29.65,NNE,30,0.0,4.0,68,0.00,,,0.00,Wunderground v.1.15,2013-03-25 04:05:00,
2013-03-25 00:08:00,32.6,23.2,29.65,NNE,30,0.0,4.0,68,0.00,,,0.00,Wunderground v.1.15,2013-03-25 04:08:00,
2013-03-25 00:11:00,32.5,23.5,29.65,NNE,31,0.0,4.0,69,0.00,,,0.00,Wunderground v.1.15,2013-03-25 04:11:00,
2013-03-25 00:13:00,32.4,23.4,29.65,NNE,31,0.0,4.0,69,0.00,,,0.00,Wunderground v.1.15,2013-03-25 04:13:00,
2013-03-25 00:14:00,32.3,23.3,29.65,NNE,31,0.0,4.0,69,0.00,,,0.00,Wunderground v.1.15,2013-03-25 04:14:00,
2013-03-25 00:17:00,32.2,23.2,29.64,NE,34,0.0,4.0,69,0.00,,,0.00,Wunderground v.1.15,2013-03-25 04:17:00,
2013-03-25 00:19:00,32.1,23.4,29.65,NE,34,0.0,4.0,70,0.00,,,0.00,Wunderground v.1.15,2013-03-25 04:19:00,
2013-03-25 00:20:00,32.1,23.4,29.65,NE,34,0.0,4.0,70,0.00,,,0.00,Wunderground v.1.15,2013-03-25 04:20:00,
2013-03-25 00:24:00,32.0,23.3,29.64,NE,34,0.0,4.0,70,0.00,,,0.00,Wunderground v.1.15,2013-03-25 04:24:00,
2013-03-25 00:27:00,31.9,23.2,29.64,NE,34,0.0,4.0,70,0.00,,,0.00,Wunderground v.1.15,2013-03-25 04:27:00,
2013-03-25 00:29:00,31.9,23.6,29.64,NE,34,0.0,4.0,71,0.00,,,0.00,Wunderground v.1.15,2013-03-25 04:29:00,
2013-03-25 00:32:00,31.8,23.5,29.64,NE,34,0.0,4.0,71,0.00,,,0.00,Wunderground v.1.15,2013-03-25 04:32:00,
2013-03-25 00:34:00,31.8,23.5,29.64,NE,34,1.0,4.0,71,0.00,,,0.00,Wunderground v.1.15,2013-03-25 04:34:00,
2013-03-25 00:35:00,31.7,23.4,29.64,NE,34,1.0,4.0,71,0.00,,,0.00,Wunderground v.1.15,2013-03-25 04:35:00,
2013-03-25 00:40:00,31.7,23.4,29.64,NE,34,1.0,1.0,71,0.00,,,0.00,Wunderground v.1.15,2013-03-25 04:40:00,
2013-03-25 00:41:00,31.7,23.4,29.64,NE,34,1.0,3.0,71,0.00,,,0.00,Wunderground v.1.15,2013-03-25 04:41:00,
2013-03-25 00:43:00,31.7,23.4,29.64,NE,34,2.0,4.0,71,0.00,,,0.00,Wunderground v.1.15,2013-03-25 04:43:00,
2013-03-25 00:44:00,31.7,23.4,29.63,NNE,27,2.0,4.0,71,0.00,,,0.00,Wunderground v.1.15,2013-03-25 04:44:00,
2013-03-25 00:48:00,31.7,23.4,29.63,NE,42,2.0,4.0,71,0.00,,,0.00,Wunderground v.1.15,2013-03-25 04:48:00,
2013-03-25 00:50:00,31.7,23.4,29.63,NNE,27,2.0,2.0,71,0.00,,,0.00,Wunderground v.1.15,2013-03-25 04:50:00,
2013-03-25 00:54:00,31.7,23.7,29.63,NNE,32,2.0,4.0,72,0.00,,,0.00,Wunderground v.1.15,2013-03-25 04:54:00,
2013-03-25 00:55:00,31.7,23.7,29.63,NE,46,1.0,4.0,72,0.00,,,0.00,Wunderground v.1.15,2013-03-25 04:55:00,
2013-03-25 00:57:00,31.7,23.7,29.63,NNE,29,2.0,5.0,72,0.00,,,0.00,Wunderground v.1.15,2013-03-25 04:57:00,
2013-03-25 00:59:00,31.7,23.7,29.63,NNE,16,2.0,5.0,72,0.00,,,0.00,Wunderground v.1.15,2013-03-25 04:59:00,
2013-03-25 01:01:00,31.7,23.7,29.63,NNE,26,2.0,6.0,72,0.00,,,0.00,Wunderground v.1.15,2013-03-25 05:01:00,
2013-03-25 01:02:00,31.7,23.7,29.63,NNE,24,2.0,6.0,72,0.00,,,0.00,Wunderground v.1.15,2013-03-25 05:02:00,
2013-03-25 01:07:00,31.6,23.6,29.63,NNE,26,2.0,6.0,72,0.00,,,0.00,Wunderground v.1.15,2013-03-25 05:07:00,
2013-03-25 01:08:00,31.6,23.6,29.63,NE,37,2.0,6.0,72,0.00,,,0.00,Wunderground v.1.15,2013-03-25 05:08:00,
2013-03-25 01:11:00,31.6,23.6,29.63,NNE,26,2.0,4.0,72,0.00,,,0.00,Wunderground v.1.15,2013-03-25 05:11:00,
2013-03-25 01:12:00,31.6,23.6,29.63,NNE,24,2.0,6.0,72,0.00,,,0.00,Wunderground v.1.15,2013-03-25 05:12:00,
2013-03-25 01:13:00,31.6,23.6,29.63,NNE,25,2.0,6.0,72,0.00,,,0.00,Wunderground v.1.15,2013-03-25 05:13:00,
2013-03-25 01:15:00,31.6,23.6,29.63,NNE,15,2.0,6.0,72,0.00,,,0.00,Wunderground v.1.15,2013-03-25 05:15:00,
2013-03-25 01:18:00,31.6,23.6,29.63,NNE,28,2.0,6.0,72,0.00,,,0.00,Wunderground v.1.15,2013-03-25 05:18:00,
2013-03-25 01:22:00,31.6,23.6,29.63,NE,46,2.0,6.0,72,0.00,,,0.00,Wunderground v.1.15,2013-03-25 05:22:00,
2013-03-25 01:24:00,31.6,23.6,29.63,NE,37,2.0,6.0,72,0.00,,,0.00,Wunderground v.1.15,2013-03-25 05:24:00,
2013-03-25 01:26:00,31.6,23.6,29.63,NNE,32,2.0,6.0,72,0.00,,,0.00,Wunderground v.1.15,2013-03-25 05:26:00,
2013-03-25 01:27:00,31.6,23.6,29.63,NNE,32,2.0,6.0,72,0.00,,,0.00,Wunderground v.1.15,2013-03-25 05:27:00,
2013-03-25 01:28:00,31.6,23.6,29.63,NNE,32,2.0,6.0,72,0.00,,,0.00,Wunderground v.1.15,2013-03-25 05:28:00,
2013-03-25 01:32:00,31.5,23.5,29.63,NNE,26,2.0,6.0,72,0.00,,,0.00,Wunderground v.1.15,2013-03-25 05:32:00,
2013-03-25 01:33:00,31.5,23.5,29.63,NNE,26,2.0,6.0,72,0.00,,,0.00,Wunderground v.1.15,2013-03-25 05:33:00,
2013-03-25 01:35:00,31.5,23.5,29.63,NNE,26,2.0,6.0,72,0.00,,,0.00,Wunderground v.1.15,2013-03-25 05:35:00,
2013-03-25 01:37:00,31.4,23.4,29.63,NNE,26,2.0,6.0,72,0.00,,,0.00,Wunderground v.1.15,2013-03-25 05:37:00,
2013-03-25 01:38:00,31.4,23.4,29.63,NNE,26,2.0,6.0,72,0.00,,,0.00,Wunderground v.1.15,2013-03-25 05:38:00,
2013-03-25 01:41:00,31.4,23.4,29.63,NNE,23,2.0,6.0,72,0.00,,,0.00,Wunderground v.1.15,2013-03-25 05:41:00,
2013-03-25 01:44:00,31.4,23.4,29.63,NNE,28,2.0,6.0,72,0.00,,,0.00,Wunderground v.1.15,2013-03-25 05:44:00,
2013-03-25 01:46:00,31.4,23.4,29.63,NE,35,3.0,6.0,72,0.00,,,0.00,Wunderground v.1.15,2013-03-25 05:46:00,
2013-03-25 01:49:00,31.3,23.3,29.63,NNE,31,3.0,6.0,72,0.00,,,0.00,Wunderground v.1.15,2013-03-25 05:49:00,
2013-03-25 01:50:00,31.3,23.6,29.63,NE,38,3.0,6.0,73,0.00,,,0.00,Wunderground v.1.15,2013-03-25 05:50:00,
2013-03-25 01:52:00,31.3,23.6,29.63,NNE,32,3.0,6.0,73,0.00,,,0.00,Wunderground v.1.15,2013-03-25 05:52:00,
2013-03-25 01:55:00,31.2,23.5,29.63,NNE,25,3.0,6.0,73,0.00,,,0.00,Wunderground v.1.15,2013-03-25 05:55:00,
2013-03-25 01:56:00,31.2,23.5,29.62,NNE,25,3.0,6.0,73,0.00,,,0.00,Wunderground v.1.15,2013-03-25 05:56:00,
2013-03-25 02:00:00,31.1,23.5,29.62,NE,46,3.0,3.0,73,0.00,,,0.00,Wunderground v.1.15,2013-03-25 06:00:00,
2013-03-25 02:01:00,31.1,23.5,29.62,NE,46,3.0,7.0,73,0.00,,,0.00,Wunderground v.1.15,2013-03-25 06:01:00,
2013-03-25 02:02:00,31.1,23.5,29.62,NE,43,2.0,7.0,73,0.00,,,0.00,Wunderground v.1.15,2013-03-25 06:02:00,
2013-03-25 02:06:00,31.0,23.4,29.62,NNE,29,2.0,7.0,73,0.00,,,0.00,Wunderground v.1.15,2013-03-25 06:06:00,
2013-03-25 02:07:00,31.1,23.5,29.62,NNE,12,2.0,7.0,73,0.00,,,0.00,Wunderground v.1.15,2013-03-25 06:07:00,
2013-03-25 02:10:00,31.0,23.4,29.62,NNE,17,3.0,3.0,73,0.00,,,0.00,Wunderground v.1.15,2013-03-25 06:10:00,
2013-03-25 02:11:00,31.0,23.4,29.62,NNE,18,3.0,7.0,73,0.00,,,0.00,Wunderground v.1.15,2013-03-25 06:11:00,
2013-03-25 02:13:00,31.1,23.5,29.62,NNE,26,3.0,7.0,73,0.00,,,0.00,Wunderground v.1.15,2013-03-25 06:13:00,
2013-03-25 02:14:00,31.0,23.4,29.62,NNE,16,3.0,7.0,73,0.00,,,0.00,Wunderground v.1.15,2013-03-25 06:14:00,
2013-03-25 02:17:00,31.0,23.4,29.62,NNE,24,3.0,7.0,73,0.00,,,0.00,Wunderground v.1.15,2013-03-25 06:17:00,
2013-03-25 02:19:00,31.0,23.4,29.62,NNE,28,2.0,7.0,73,0.00,,,0.00,Wunderground v.1.15,2013-03-25 06:19:00,
2013-03-25 02:20:00,31.0,23.4,29.62,NE,34,2.0,7.0,73,0.00,,,0.00,Wunderground v.1.15,2013-03-25 06:20:00,
2013-03-25 02:22:00,31.0,23.4,29.62,North,11,3.0,7.0,73,0.00,,,0.00,Wunderground v.1.15,2013-03-25 06:22:00,
2013-03-25 02:23:00,31.0,23.7,29.62,NNE,15,3.0,7.0,74,0.00,,,0.00,Wunderground v.1.15,2013-03-25 06:23:00,
2013-03-25 02:24:00,30.9,23.6,29.62,NNE,23,3.0,7.0,74,0.00,,,0.00,Wunderground v.1.15,2013-03-25 06:24:00,
2013-03-25 02:28:00,30.9,23.6,29.62,NNE,28,3.0,7.0,74,0.00,,,0.00,Wunderground v.1.15,2013-03-25 06:28:00,
2013-03-25 02:30:00,30.8,23.5,29.62,NE,37,3.0,7.0,74,0.00,,,0.00,Wunderground v.1.15,2013-03-25 06:30:00,
2013-03-25 02:31:00,30.8,23.5,29.62,NE,35,3.0,7.0,74,0.00,,,0.00,Wunderground v.1.15,2013-03-25 06:31:00,
2013-03-25 02:32:00,30.8,23.5,29.62,NNE,32,3.0,7.0,74,0.00,,,0.00,Wunderground v.1.15,2013-03-25 06:32:00,
2013-03-25 02:37:00,30.8,23.5,29.62,NNE,23,4.0,7.0,74,0.00,,,0.00,Wunderground v.1.15,2013-03-25 06:37:00,
2013-03-25 02:39:00,30.7,23.4,29.62,NNE,23,4.0,7.0,74,0.00,,,0.00,Wunderground v.1.15,2013-03-25 06:39:00,
2013-03-25 02:42:00,30.7,23.4,29.62,NNE,26,4.0,7.0,74,0.00,,,0.00,Wunderground v.1.15,2013-03-25 06:42:00,
2013-03-25 02:43:00,30.7,23.4,29.62,NNE,28,4.0,7.0,74,0.00,,,0.00,Wunderground v.1.15,2013-03-25 06:43:00,
2013-03-25 02:45:00,30.6,23.3,29.62,NNE,25,4.0,7.0,74,0.00,,,0.00,Wunderground v.1.15,2013-03-25 06:45:00,
2013-03-25 02:48:00,30.6,23.6,29.62,NNE,25,4.0,7.0,75,0.00,,,0.00,Wunderground v.1.15,2013-03-25 06:48:00,
2013-03-25 02:49:00,30.6,23.6,29.62,NNE,30,3.0,7.0,75,0.00,,,0.00,Wunderground v.1.15,2013-03-25 06:49:00,
2013-03-25 02:50:00,30.6,23.6,29.62,NNE,28,3.0,7.0,75,0.00,,,0.00,Wunderground v.1.15,2013-03-25 06:50:00,
2013-03-25 02:52:00,30.5,23.5,29.62,NNE,29,3.0,7.0,75,0.00,,,0.00,Wunderground v.1.15,2013-03-25 06:52:00,
2013-03-25 02:54:00,30.5,23.5,29.62,NNE,30,3.0,7.0,75,0.00,,,0.00,Wunderground v.1.15,2013-03-25 06:54:00,
2013-03-25 02:59:00,30.4,23.7,29.62,NNE,17,3.0,7.0,76,0.00,,,0.00,Wunderground v.1.15,2013-03-25 06:59:00,
2013-03-25 03:00:00,30.4,23.7,29.61,NNE,30,2.0,2.0,76,0.00,,,0.00,Wunderground v.1.15,2013-03-25 07:00:00,
2013-03-25 03:02:00,30.4,23.7,29.61,NNE,30,2.0,8.0,76,0.00,,,0.00,Wunderground v.1.15,2013-03-25 07:02:00,
2013-03-25 03:06:00,30.5,23.8,29.61,NNE,30,2.0,8.0,76,0.00,,,0.00,Wunderground v.1.15,2013-03-25 07:06:00,
2013-03-25 03:07:00,30.6,23.9,29.61,NNE,30,2.0,8.0,76,0.00,,,0.00,Wunderground v.1.15,2013-03-25 07:07:00,
2013-03-25 03:08:00,30.5,23.8,29.61,NNE,30,2.0,8.0,76,0.00,,,0.00,Wunderground v.1.15,2013-03-25 07:08:00,
2013-03-25 03:09:00,30.6,23.9,29.61,NNE,30,2.0,8.0,76,0.00,,,0.00,Wunderground v.1.15,2013-03-25 07:09:00,
2013-03-25 03:14:00,30.6,23.6,29.61,NNE,25,2.0,8.0,75,0.00,,,0.00,Wunderground v.1.15,2013-03-25 07:14:00,
2013-03-25 03:15:00,30.7,23.7,29.60,NNE,28,2.0,8.0,75,0.00,,,0.00,Wunderground v.1.15,2013-03-25 07:15:00,
2013-03-25 03:20:00,30.7,23.7,29.60,NNE,20,3.0,3.0,75,0.00,,,0.00,Wunderground v.1.15,2013-03-25 07:20:00,
2013-03-25 03:22:00,30.7,23.7,29.60,NE,34,3.0,8.0,75,0.00,,,0.00,Wunderground v.1.15,2013-03-25 07:22:00,
2013-03-25 03:23:00,30.7,23.7,29.60,NNE,33,3.0,8.0,75,0.00,,,0.00,Wunderground v.1.15,2013-03-25 07:23:00,
2013-03-25 03:24:00,30.7,23.7,29.60,NNE,33,3.0,8.0,75,0.00,,,0.00,Wunderground v.1.15,2013-03-25 07:24:00,
2013-03-25 03:28:00,30.7,23.7,29.60,NNE,28,3.0,8.0,75,0.00,,,0.00,Wunderground v.1.15,2013-03-25 07:28:00,
2013-03-25 03:30:00,30.7,23.7,29.60,NNE,27,3.0,3.0,75,0.00,,,0.00,Wunderground v.1.15,2013-03-25 07:30:00,
2013-03-25 03:32:00,30.7,23.7,29.60,NNE,30,3.0,8.0,75,0.00,,,0.00,Wunderground v.1.15,2013-03-25 07:32:00,
2013-03-25 03:33:00,30.7,23.7,29.60,NNE,31,3.0,8.0,75,0.00,,,0.00,Wunderground v.1.15,2013-03-25 07:33:00,
2013-03-25 03:34:00,30.7,23.7,29.60,NNE,30,3.0,8.0,75,0.00,,,0.00,Wunderground v.1.15,2013-03-25 07:34:00,
2013-03-25 03:35:00,30.7,23.7,29.60,NE,34,3.0,8.0,75,0.00,,,0.00,Wunderground v.1.15,2013-03-25 07:35:00,
2013-03-25 03:40:00,30.7,23.7,29.60,NNE,28,3.0,3.0,75,0.00,,,0.00,Wunderground v.1.15,2013-03-25 07:40:00,
2013-03-25 03:44:00,30.7,23.7,29.60,NNE,25,4.0,8.0,75,0.00,,,0.00,Wunderground v.1.15,2013-03-25 07:44:00,
2013-03-25 03:45:00,30.7,23.7,29.60,NNE,19,4.0,8.0,75,0.00,,,0.00,Wunderground v.1.15,2013-03-25 07:45:00,
2013-03-25 03:46:00,30.7,23.7,29.60,NNE,28,4.0,8.0,75,0.00,,,0.00,Wunderground v.1.15,2013-03-25 07:46:00,
2013-03-25 03:48:00,30.7,23.7,29.59,NNE,28,4.0,8.0,75,0.00,,,0.00,Wunderground v.1.15,2013-03-25 07:48:00,
2013-03-25 03:50:00,30.6,23.6,29.59,NNE,16,3.0,3.0,75,0.00,,,0.00,Wunderground v.1.15,2013-03-25 07:50:00,
2013-03-25 03:52:00,30.6,23.6,29.59,NNE,17,3.0,8.0,75,0.00,,,0.00,Wunderground v.1.15,2013-03-25 07:52:00,
2013-03-25 03:53:00,30.6,23.6,29.59,NNE,16,4.0,8.0,75,0.00,,,0.00,Wunderground v.1.15,2013-03-25 07:53:00,
2013-03-25 03:57:00,30.5,23.8,29.59,NNE,21,4.0,8.0,76,0.00,,,0.00,Wunderground v.1.15,2013-03-25 07:57:00,
2013-03-25 03:58:00,30.6,23.9,29.59,NNE,33,4.0,8.0,76,0.00,,,0.00,Wunderground v.1.15,2013-03-25 07:58:00,
2013-03-25 03:59:00,30.6,23.9,29.59,NNE,30,4.0,8.0,76,0.00,,,0.00,Wunderground v.1.15,2013-03-25 07:59:00,
2013-03-25 04:02:00,30.6,23.9,29.59,NNE,28,4.0,6.0,76,0.00,,,0.00,Wunderground v.1.15,2013-03-25 08:02:00,
2013-03-25 04:04:00,30.6,23.9,29.59,NE,34,3.0,6.0,76,0.00,,,0.00,Wunderground v.1.15,2013-03-25 08:04:00,
2013-03-25 04:06:00,30.6,23.9,29.59,North,11,3.0,6.0,76,0.00,,,0.00,Wunderground v.1.15,2013-03-25 08:06:00,
2013-03-25 04:08:00,30.5,23.8,29.59,NNE,22,3.0,6.0,76,0.00,,,0.00,Wunderground v.1.15,2013-03-25 08:08:00,
2013-03-25 04:09:00,30.5,23.8,29.59,NNE,22,3.0,6.0,76,0.00,,,0.00,Wunderground v.1.15,2013-03-25 08:09:00,
2013-03-25 04:10:00,30.4,23.7,29.59,NNE,32,3.0,6.0,76,0.00,,,0.00,Wunderground v.1.15,2013-03-25 08:10:00,
2013-03-25 04:13:00,30.4,23.7,29.59,NNE,27,3.0,6.0,76,0.00,,,0.00,Wunderground v.1.15,2013-03-25 08:13:00,
2013-03-25 04:14:00,30.4,23.7,29.59,NNE,22,3.0,6.0,76,0.00,,,0.00,Wunderground v.1.15,2013-03-25 08:14:00,
2013-03-25 04:15:00,30.4,23.7,29.59,NNE,22,3.0,6.0,76,0.00,,,0.00,Wunderground v.1.15,2013-03-25 08:15:00,
2013-03-25 04:16:00,30.4,23.7,29.59,NNE,22,2.0,6.0,76,0.00,,,0.00,Wunderground v.1.15,2013-03-25 08:16:00,
2013-03-25 04:19:00,30.4,23.7,29.59,North,11,2.0,6.0,76,0.00,,,0.00,Wunderground v.1.15,2013-03-25 08:19:00,
2013-03-25 04:21:00,30.5,23.8,29.59,NNE,32,2.0,6.0,76,0.00,,,0.00,Wunderground v.1.15,2013-03-25 08:21:00,
2013-03-25 04:22:00,30.5,23.8,29.59,NNE,32,2.0,6.0,76,0.00,,,0.00,Wunderground v.1.15,2013-03-25 08:22:00,
2013-03-25 04:24:00,30.5,23.8,29.59,NNE,26,2.0,6.0,76,0.00,,,0.00,Wunderground v.1.15,2013-03-25 08:24:00,
2013-03-25 04:26:00,30.6,23.9,29.59,NNE,25,2.0,6.0,76,0.00,,,0.00,Wunderground v.1.15,2013-03-25 08:26:00,
2013-03-25 04:28:00,30.6,23.9,29.59,NNE,26,2.0,6.0,76,0.00,,,0.00,Wunderground v.1.15,2013-03-25 08:28:00,
2013-03-25 04:29:00,30.6,23.9,29.59,NNE,32,3.0,6.0,76,0.00,,,0.00,Wunderground v.1.15,2013-03-25 08:29:00,
2013-03-25 04:32:00,30.6,23.9,29.59,NE,38,3.0,6.0,76,0.00,,,0.00,Wunderground v.1.15,2013-03-25 08:32:00,
2013-03-25 04:33:00,30.6,23.9,29.59,NNE,29,3.0,6.0,76,0.00,,,0.00,Wunderground v.1.15,2013-03-25 08:33:00,
2013-03-25 04:34:00,30.6,23.9,29.59,NNE,32,3.0,6.0,76,0.00,,,0.00,Wunderground v.1.15,2013-03-25 08:34:00,
2013-03-25 04:37:00,30.6,23.9,29.58,NNE,26,3.0,6.0,76,0.00,,,0.00,Wunderground v.1.15,2013-03-25 08:37:00,
2013-03-25 04:39:00,30.5,23.8,29.59,NNE,23,3.0,6.0,76,0.00,,,0.00,Wunderground v.1.15,2013-03-25 08:39:00,
2013-03-25 04:43:00,30.5,23.8,29.58,NE,36,3.0,6.0,76,0.00,,,0.00,Wunderground v.1.15,2013-03-25 08:43:00,
2013-03-25 04:45:00,30.5,23.8,29.58,NNE,28,3.0,6.0,76,0.00,,,0.00,Wunderground v.1.15,2013-03-25 08:45:00,
2013-03-25 04:48:00,30.5,23.8,29.58,NNE,16,3.0,6.0,76,0.00,,,0.00,Wunderground v.1.15,2013-03-25 08:48:00,
2013-03-25 04:49:00,30.5,23.8,29.58,NNE,22,3.0,6.0,76,0.00,,,0.00,Wunderground v.1.15,2013-03-25 08:49:00,
2013-03-25 04:51:00,30.4,23.7,29.58,NNE,30,2.0,6.0,76,0.00,,,0.00,Wunderground v.1.15,2013-03-25 08:51:00,
2013-03-25 04:53:00,30.5,23.8,29.58,NNE,26,2.0,6.0,76,0.00,,,0.00,Wunderground v.1.15,2013-03-25 08:53:00,
2013-03-25 04:55:00,30.5,23.8,29.58,NNE,26,2.0,6.0,76,0.00,,,0.00,Wunderground v.1.15,2013-03-25 08:55:00,
2013-03-25 04:57:00,30.4,23.7,29.58,NNE,26,2.0,6.0,76,0.00,,,0.00,Wunderground v.1.15,2013-03-25 08:57:00,
2013-03-25 05:00:00,30.4,23.7,29.58,NNE,24,2.0,5.0,76,0.00,,,0.00,Wunderground v.1.15,2013-03-25 09:00:00,
2013-03-25 05:02:00,30.4,23.7,29.58,NNE,26,2.0,5.0,76,0.00,,,0.00,Wunderground v.1.15,2013-03-25 09:02:00,
2013-03-25 05:04:00,30.3,23.6,29.58,NNE,25,2.0,5.0,76,0.00,,,0.00,Wunderground v.1.15,2013-03-25 09:04:00,
2013-03-25 05:05:00,30.3,23.6,29.58,NNE,24,2.0,5.0,76,0.00,,,0.00,Wunderground v.1.15,2013-03-25 09:05:00,
2013-03-25 05:09:00,30.3,23.6,29.58,NE,34,2.0,5.0,76,0.00,,,0.00,Wunderground v.1.15,2013-03-25 09:09:00,
2013-03-25 05:10:00,30.3,23.6,29.58,NE,36,2.0,2.0,76,0.00,,,0.00,Wunderground v.1.15,2013-03-25 09:10:00,
2013-03-25 05:13:00,30.4,23.7,29.58,NE,36,2.0,5.0,76,0.00,,,0.00,Wunderground v.1.15,2013-03-25 09:13:00,
2013-03-25 05:15:00,30.4,23.7,29.58,NE,36,2.0,5.0,76,0.00,,,0.00,Wunderground v.1.15,2013-03-25 09:15:00,
2013-03-25 05:16:00,30.4,23.7,29.58,NE,36,1.0,5.0,76,0.00,,,0.00,Wunderground v.1.15,2013-03-25 09:16:00,
2013-03-25 05:18:00,30.4,23.7,29.58,ENE,71,1.0,5.0,76,0.00,,,0.00,Wunderground v.1.15,2013-03-25 09:18:00,
2013-03-25 05:22:00,30.5,23.8,29.58,NE,53,2.0,5.0,76,0.00,,,0.00,Wunderground v.1.15,2013-03-25 09:22:00,
2013-03-25 05:24:00,30.5,23.8,29.58,NE,43,2.0,5.0,76,0.00,,,0.00,Wunderground v.1.15,2013-03-25 09:24:00,
2013-03-25 05:25:00,30.5,23.8,29.58,NE,43,2.0,5.0,76,0.00,,,0.00,Wunderground v.1.15,2013-03-25 09:25:00,
2013-03-25 05:28:00,30.5,23.8,29.58,NE,42,1.0,5.0,76,0.00,,,0.00,Wunderground v.1.15,2013-03-25 09:28:00,
2013-03-25 05:29:00,30.5,23.8,29.58,NE,42,1.0,5.0,76,0.00,,,0.00,Wunderground v.1.15,2013-03-25 09:29:00,
2013-03-25 05:33:00,30.6,23.9,29.58,NNE,31,1.0,5.0,76,0.00,,,0.00,Wunderground v.1.15,2013-03-25 09:33:00,
2013-03-25 05:36:00,30.6,23.9,29.58,NNE,22,2.0,5.0,76,0.00,,,0.00,Wunderground v.1.15,2013-03-25 09:36:00,
2013-03-25 05:37:00,30.5,23.8,29.58,NNE,28,2.0,5.0,76,0.00,,,0.00,Wunderground v.1.15,2013-03-25 09:37:00,
2013-03-25 05:38:00,30.5,23.8,29.58,NNE,22,2.0,5.0,76,0.00,,,0.00,Wunderground v.1.15,2013-03-25 09:38:00,
2013-03-25 05:39:00,30.5,23.8,29.58,NNE,30,2.0,5.0,76,0.00,,,0.00,Wunderground v.1.15,2013-03-25 09:39:00,
2013-03-25 05:43:00,30.5,23.5,29.57,NNE,32,3.0,5.0,75,0.00,,,0.00,Wunderground v.1.15,2013-03-25 09:43:00,
2013-03-25 05:45:00,30.5,23.5,29.57,NNE,26,3.0,5.0,75,0.00,,,0.00,Wunderground v.1.15,2013-03-25 09:45:00,
2013-03-25 05:46:00,30.5,23.5,29.58,NNE,24,3.0,5.0,75,0.00,,,0.00,Wunderground v.1.15,2013-03-25 09:46:00,
2013-03-25 05:49:00,30.5,23.8,29.57,NNE,24,3.0,5.0,76,0.00,,,0.00,Wunderground v.1.15,2013-03-25 09:49:00,
2013-03-25 05:50:00,30.5,23.5,29.57,NNE,28,3.0,3.0,75,0.00,,,0.00,Wunderground v.1.15,2013-03-25 09:50:00,
2013-03-25 05:51:00,30.5,23.5,29.57,NNE,28,3.0,5.0,75,0.00,,,0.00,Wunderground v.1.15,2013-03-25 09:51:00,
2013-03-25 05:54:00,30.5,23.8,29.57,NNE,28,2.0,5.0,76,0.00,,,0.00,Wunderground v.1.15,2013-03-25 09:54:00,
2013-03-25 05:56:00,30.5,23.5,29.57,NNE,28,2.0,5.0,75,0.00,,,0.00,Wunderground v.1.15,2013-03-25 09:56:00,
2013-03-25 05:57:00,30.5,23.5,29.57,NNE,28,2.0,5.0,75,0.00,,,0.00,Wunderground v.1.15,2013-03-25 09:57:00,
2013-03-25 05:59:00,30.5,23.5,29.57,NNE,27,2.0,5.0,75,0.00,,,0.00,Wunderground v.1.15,2013-03-25 09:59:00,
2013-03-25 06:02:00,30.6,23.6,29.57,NNE,25,2.0,5.0,75,0.00,,,0.00,Wunderground v.1.15,2013-03-25 10:02:00,
2013-03-25 06:03:00,30.6,23.6,29.57,NNE,25,2.0,5.0,75,0.00,,,0.00,Wunderground v.1.15,2013-03-25 10:03:00,
2013-03-25 06:07:00,30.6,23.6,29.57,NNE,25,2.0,5.0,75,0.00,,,0.00,Wunderground v.1.15,2013-03-25 10:07:00,
2013-03-25 06:10:00,30.6,23.6,29.57,NNE,27,2.0,5.0,75,0.00,,,0.00,Wunderground v.1.15,2013-03-25 10:10:00,
2013-03-25 06:12:00,30.6,23.6,29.57,NNE,28,3.0,5.0,75,0.00,,,0.00,Wunderground v.1.15,2013-03-25 10:12:00,
2013-03-25 06:14:00,30.5,23.5,29.57,NE,38,3.0,5.0,75,0.00,,,0.00,Wunderground v.1.15,2013-03-25 10:14:00,
2013-03-25 06:17:00,30.5,23.5,29.57,NE,34,2.0,5.0,75,0.00,,,0.00,Wunderground v.1.15,2013-03-25 10:17:00,
2013-03-25 06:19:00,30.4,23.4,29.57,ENE,66,2.0,5.0,75,0.00,,,0.00,Wunderground v.1.15,2013-03-25 10:19:00,
2013-03-25 06:21:00,30.4,23.7,29.57,NNE,27,2.0,5.0,76,0.00,,,0.00,Wunderground v.1.15,2013-03-25 10:21:00,
2013-03-25 06:22:00,30.4,23.7,29.57,NNE,21,2.0,5.0,76,0.00,,,0.00,Wunderground v.1.15,2013-03-25 10:22:00,
2013-03-25 06:24:00,30.4,23.4,29.57,NE,45,2.0,5.0,75,0.00,,,0.00,Wunderground v.1.15,2013-03-25 10:24:00,
2013-03-25 06:25:00,30.4,23.4,29.57,NNE,30,2.0,5.0,75,0.00,,,0.00,Wunderground v.1.15,2013-03-25 10:25:00,
2013-03-25 06:27:00,30.3,23.6,29.57,NNE,29,2.0,5.0,76,0.00,,,0.00,Wunderground v.1.15,2013-03-25 10:27:00,
2013-03-25 06:28:00,30.3,23.6,29.57,NE,42,2.0,5.0,76,0.00,,,0.00,Wunderground v.1.15,2013-03-25 10:28:00,
2013-03-25 06:29:00,30.3,23.6,29.57,NE,42,2.0,5.0,76,0.00,,,0.00,Wunderground v.1.15,2013-03-25 10:29:00,
2013-03-25 06:32:00,30.3,23.6,29.57,NE,34,3.0,5.0,76,0.00,,,0.00,Wunderground v.1.15,2013-03-25 10:32:00,
2013-03-25 06:33:00,30.3,23.6,29.57,NNE,32,2.0,5.0,76,0.00,,,0.00,Wunderground v.1.15,2013-03-25 10:33:00,
2013-03-25 06:36:00,30.3,23.6,29.57,NE,41,2.0,5.0,76,0.00,,,0.00,Wunderground v.1.15,2013-03-25 10:36:00,
2013-03-25 06:37:00,30.3,23.6,29.57,NE,41,2.0,5.0,76,0.00,,,0.00,Wunderground v.1.15,2013-03-25 10:37:00,
2013-03-25 06:39:00,30.3,23.6,29.57,NE,34,2.0,5.0,76,0.00,,,0.00,Wunderground v.1.15,2013-03-25 10:39:00,
2013-03-25 06:42:00,30.4,23.7,29.57,NNE,32,2.0,5.0,76,0.00,,,0.00,Wunderground v.1.15,2013-03-25 10:42:00,
2013-03-25 06:43:00,30.4,23.7,29.57,NNE,24,2.0,5.0,76,0.00,,,0.00,Wunderground v.1.15,2013-03-25 10:43:00,
2013-03-25 06:44:00,30.4,23.7,29.57,NNE,24,2.0,5.0,76,0.00,,,0.00,Wunderground v.1.15,2013-03-25 10:44:00,
2013-03-25 06:49:00,30.5,23.8,29.57,NNE,29,2.0,5.0,76,0.00,,,0.00,Wunderground v.1.15,2013-03-25 10:49:00,
2013-03-25 06:52:00,30.5,23.8,29.57,NNE,28,2.0,5.0,76,0.00,,,0.00,Wunderground v.1.15,2013-03-25 10:52:00,
2013-03-25 06:54:00,30.5,23.8,29.57,NNE,26,2.0,5.0,76,0.00,,,0.00,Wunderground v.1.15,2013-03-25 10:54:00,
2013-03-25 06:55:00,30.5,23.8,29.58,NNE,26,2.0,5.0,76,0.00,,,0.00,Wunderground v.1.15,2013-03-25 10:55:00,
2013-03-25 06:59:00,30.4,23.7,29.58,NNE,25,2.0,5.0,76,0.00,,,0.00,Wunderground v.1.15,2013-03-25 10:59:00,
2013-03-25 07:02:00,30.4,23.7,29.57,NNE,25,1.0,6.0,76,0.00,,,0.00,Wunderground v.1.15,2013-03-25 11:02:00,
2013-03-25 07:03:00,30.4,23.7,29.58,NNE,25,1.0,6.0,76,0.00,,,0.00,Wunderground v.1.15,2013-03-25 11:03:00,
2013-03-25 07:04:00,30.3,23.6,29.58,NNE,25,1.0,6.0,76,0.00,,,0.00,Wunderground v.1.15,2013-03-25 11:04:00,
2013-03-25 07:07:00,30.3,23.6,29.58,NNE,26,1.0,6.0,76,0.00,,,0.00,Wunderground v.1.15,2013-03-25 11:07:00,
2013-03-25 07:09:00,30.3,23.6,29.58,NNE,26,0.0,6.0,76,0.00,,,0.00,Wunderground v.1.15,2013-03-25 11:09:00,
2013-03-25 07:10:00,30.3,23.6,29.58,NNE,26,0.0,6.0,76,0.00,,,0.00,Wunderground v.1.15,2013-03-25 11:10:00,
2013-03-25 07:14:00,30.2,23.5,29.58,NNE,28,1.0,6.0,76,0.00,,,0.00,Wunderground v.1.15,2013-03-25 11:14:00,
2013-03-25 07:15:00,30.2,23.5,29.58,NNE,28,1.0,6.0,76,0.00,,,0.00,Wunderground v.1.15,2013-03-25 11:15:00,
2013-03-25 07:17:00,30.2,23.5,29.58,NE,39,1.0,6.0,76,0.00,,,0.00,Wunderground v.1.15,2013-03-25 11:17:00,
2013-03-25 07:20:00,30.3,23.6,29.58,NE,48,2.0,2.0,76,0.00,,,0.00,Wunderground v.1.15,2013-03-25 11:20:00,
2013-03-25 07:21:00,30.3,23.6,29.58,NE,47,2.0,6.0,76,0.00,,,0.00,Wunderground v.1.15,2013-03-25 11:21:00,
2013-03-25 07:22:00,30.3,23.6,29.58,NE,49,2.0,6.0,76,0.00,,,0.00,Wunderground v.1.15,2013-03-25 11:22:00,
2013-03-25 07:24:00,30.3,23.6,29.58,NE,47,2.0,6.0,76,0.00,,,0.00,Wunderground v.1.15,2013-03-25 11:24:00,
2013-03-25 07:27:00,30.3,23.6,29.58,NNE,20,2.0,6.0,76,0.00,,,0.00,Wunderground v.1.15,2013-03-25 11:27:00,
2013-03-25 07:30:00,30.3,23.6,29.58,NNE,25,1.0,6.0,76,0.00,,,0.00,Wunderground v.1.15,2013-03-25 11:30:00,
2013-03-25 07:34:00,30.3,23.6,29.58,NNE,25,1.0,6.0,76,0.00,,,0.00,Wunderground v.1.15,2013-03-25 11:34:00,
2013-03-25 07:37:00,30.4,23.7,29.58,NNE,26,1.0,6.0,76,0.00,,,0.00,Wunderground v.1.15,2013-03-25 11:37:00,
2013-03-25 07:38:00,30.4,23.7,29.58,NNE,26,1.0,6.0,76,0.00,,,0.00,Wunderground v.1.15,2013-03-25 11:38:00,
2013-03-25 07:39:00,30.4,23.7,29.58,NNE,26,1.0,6.0,76,0.00,,,0.00,Wunderground v.1.15,2013-03-25 11:39:00,
2013-03-25 07:41:00,30.4,23.7,29.58,NNE,25,1.0,6.0,76,0.00,,,0.00,Wunderground v.1.15,2013-03-25 11:41:00,
2013-03-25 07:42:00,30.5,23.8,29.58,NNE,25,2.0,6.0,76,0.00,,,0.00,Wunderground v.1.15,2013-03-25 11:42:00,
2013-03-25 07:45:00,30.5,23.8,29.58,NNE,28,1.0,7.0,76,0.00,,,0.00,Wunderground v.1.15,2013-03-25 11:45:00,
2013-03-25 07:47:00,30.5,23.8,29.58,NNE,32,2.0,7.0,76,0.00,,,0.00,Wunderground v.1.15,2013-03-25 11:47:00,
2013-03-25 07:48:00,30.6,23.9,29.58,NE,34,1.0,7.0,76,0.00,,,0.00,Wunderground v.1.15,2013-03-25 11:48:00,
2013-03-25 07:50:00,30.6,23.9,29.58,NNE,33,2.0,2.0,76,0.00,,,0.00,Wunderground v.1.15,2013-03-25 11:50:00,
2013-03-25 07:53:00,30.6,23.9,29.58,NE,42,1.0,6.0,76,0.00,,,0.00,Wunderground v.1.15,2013-03-25 11:53:00,
2013-03-25 07:57:00,30.7,24.0,29.58,NNE,21,1.0,6.0,76,0.00,,,0.00,Wunderground v.1.15,2013-03-25 11:57:00,
2013-03-25 07:59:00,30.7,24.0,29.58,NE,38,1.0,6.0,76,0.00,,,0.00,Wunderground v.1.15,2013-03-25 11:59:00,
2013-03-25 08:04:00,30.8,24.1,29.59,NNE,26,2.0,7.0,76,0.00,,,0.00,Wunderground v.1.15,2013-03-25 12:04:00,
2013-03-25 08:07:00,30.9,24.2,29.59,NE,36,2.0,7.0,76,0.00,,,0.00,Wunderground v.1.15,2013-03-25 12:07:00,
2013-03-25 08:08:00,30.9,24.2,29.59,NE,36,1.0,7.0,76,0.00,,,0.00,Wunderground v.1.15,2013-03-25 12:08:00,
2013-03-25 08:11:00,31.0,24.3,29.58,NE,48,2.0,4.0,76,0.00,,,0.00,Wunderground v.1.15,2013-03-25 12:11:00,
2013-03-25 08:12:00,31.0,24.3,29.58,NNE,25,2.0,7.0,76,0.00,,,0.00,Wunderground v.1.15,2013-03-25 12:12:00,
2013-03-25 08:16:00,31.1,24.4,29.58,NNE,25,2.0,7.0,76,0.00,,,0.00,Wunderground v.1.15,2013-03-25 12:16:00,
2013-03-25 08:18:00,31.2,24.5,29.58,NE,46,2.0,7.0,76,0.00,,,0.00,Wunderground v.1.15,2013-03-25 12:18:00,
2013-03-25 08:19:00,31.2,24.5,29.58,NE,39,3.0,7.0,76,0.00,,,0.00,Wunderground v.1.15,2013-03-25 12:19:00,
2013-03-25 08:21:00,31.2,24.5,29.58,North,9,2.0,7.0,76,0.00,,,0.00,Wunderground v.1.15,2013-03-25 12:21:00,
2013-03-25 08:25:00,31.4,24.7,29.58,North,360,2.0,7.0,76,0.00,,,0.00,Wunderground v.1.15,2013-03-25 12:25:00,
2013-03-25 08:28:00,31.5,24.8,29.58,North,360,1.0,7.0,76,0.00,,,0.00,Wunderground v.1.15,2013-03-25 12:28:00,
2013-03-25 08:29:00,31.5,24.8,29.58,North,5,1.0,7.0,76,0.00,,,0.00,Wunderground v.1.15,2013-03-25 12:29:00,
2013-03-25 08:34:00,31.6,24.6,29.58,NNE,15,1.0,7.0,75,0.00,,,0.00,Wunderground v.1.15,2013-03-25 12:34:00,
2013-03-25 08:37:00,31.7,24.7,29.58,NNE,15,1.0,7.0,75,0.00,,,0.00,Wunderground v.1.15,2013-03-25 12:37:00,
2013-03-25 08:39:00,31.8,24.8,29.58,NNE,25,1.0,7.0,75,0.00,,,0.00,Wunderground v.1.15,2013-03-25 12:39:00,
2013-03-25 08:43:00,31.9,24.9,29.58,NNE,23,1.0,7.0,75,0.00,,,0.00,Wunderground v.1.15,2013-03-25 12:43:00,
2013-03-25 08:44:00,32.0,25.0,29.58,NNE,24,1.0,7.0,75,0.00,,,0.00,Wunderground v.1.15,2013-03-25 12:44:00,
2013-03-25 08:45:00,32.0,25.0,29.58,NE,34,1.0,7.0,75,0.00,,,0.00,Wunderground v.1.15,2013-03-25 12:45:00,
2013-03-25 08:48:00,32.1,25.1,29.58,NNE,26,1.0,7.0,75,0.00,,,0.00,Wunderground v.1.15,2013-03-25 12:48:00,
2013-03-25 08:49:00,32.2,25.2,29.57,NNE,28,1.0,7.0,75,0.00,,,0.00,Wunderground v.1.15,2013-03-25 12:49:00,
2013-03-25 08:50:00,32.2,24.8,29.58,NNE,28,1.0,7.0,74,0.00,,,0.00,Wunderground v.1.15,2013-03-25 12:50:00,
2013-03-25 08:54:00,32.4,25.0,29.57,NNE,26,1.0,7.0,74,0.00,,,0.00,Wunderground v.1.15,2013-03-25 12:54:00,
2013-03-25 08:55:00,32.4,25.0,29.57,NNE,28,2.0,7.0,74,0.00,,,0.00,Wunderground v.1.15,2013-03-25 12:55:00,
2013-03-25 08:57:00,32.5,25.1,29.57,NNE,22,1.0,7.0,74,0.00,,,0.00,Wunderground v.1.15,2013-03-25 12:57:00,
2013-03-25 09:00:00,32.7,25.3,29.57,NNE,13,2.0,6.0,74,0.00,,,0.00,Wunderground v.1.15,2013-03-25 13:00:00,
2013-03-25 09:02:00,32.7,25.3,29.57,NE,37,2.0,6.0,74,0.00,,,0.00,Wunderground v.1.15,2013-03-25 13:02:00,
2013-03-25 09:03:00,32.8,25.4,29.57,NNE,14,2.0,6.0,74,0.00,,,0.00,Wunderground v.1.15,2013-03-25 13:03:00,
2013-03-25 09:05:00,32.8,25.4,29.57,NNE,22,2.0,6.0,74,0.00,,,0.00,Wunderground v.1.15,2013-03-25 13:05:00,
2013-03-25 09:07:00,32.9,25.5,29.57,NNE,30,2.0,6.0,74,0.00,,,0.00,Wunderground v.1.15,2013-03-25 13:07:00,
2013-03-25 09:08:00,32.9,25.2,29.57,NNE,30,2.0,6.0,73,0.00,,,0.00,Wunderground v.1.15,2013-03-25 13:08:00,
2013-03-25 09:10:00,33.1,25.7,29.57,NE,52,2.0,2.0,74,0.00,,,0.00,Wunderground v.1.15,2013-03-25 13:10:00,
2013-03-25 09:12:00,33.2,25.5,29.57,NE,48,1.0,6.0,73,0.00,,,0.00,Wunderground v.1.15,2013-03-25 13:12:00,
2013-03-25 09:13:00,33.3,25.6,29.57,NE,48,1.0,6.0,73,0.00,,,0.00,Wunderground v.1.15,2013-03-25 13:13:00,
2013-03-25 09:15:00,33.4,25.7,29.57,NE,55,1.0,6.0,73,0.00,,,0.00,Wunderground v.1.15,2013-03-25 13:15:00,
2013-03-25 09:19:00,33.6,25.9,29.57,NE,55,1.0,6.0,73,0.00,,,0.00,Wunderground v.1.15,2013-03-25 13:19:00,
2013-03-25 09:20:00,33.6,25.5,29.57,NE,53,1.0,6.0,72,0.00,,,0.00,Wunderground v.1.15,2013-03-25 13:20:00,
2013-03-25 09:23:00,33.8,25.7,29.57,NNE,19,1.0,6.0,72,0.00,,,0.00,Wunderground v.1.15,2013-03-25 13:23:00,
2013-03-25 09:27:00,34.1,26.0,29.56,East,84,1.0,6.0,72,0.00,,,0.00,Wunderground v.1.15,2013-03-25 13:27:00,
2013-03-25 09:28:00,34.1,25.7,29.56,NE,51,2.0,6.0,71,0.00,,,0.00,Wunderground v.1.15,2013-03-25 13:28:00,
2013-03-25 09:30:00,34.2,25.8,29.56,ESE,103,2.0,2.0,71,0.00,,,0.00,Wunderground v.1.15,2013-03-25 13:30:00,
2013-03-25 09:34:00,34.3,25.9,29.56,North,360,2.0,7.0,71,0.00,,,0.00,Wunderground v.1.15,2013-03-25 13:34:00,
2013-03-25 09:36:00,34.3,25.9,29.56,NNE,18,2.0,7.0,71,0.00,,,0.00,Wunderground v.1.15,2013-03-25 13:36:00,
2013-03-25 09:38:00,34.4,25.6,29.56,NNE,24,2.0,7.0,70,0.00,,,0.00,Wunderground v.1.15,2013-03-25 13:38:00,
2013-03-25 09:39:00,34.4,25.6,29.56,NNE,15,2.0,7.0,70,0.00,,,0.00,Wunderground v.1.15,2013-03-25 13:39:00,
2013-03-25 09:42:00,34.4,25.6,29.56,NNE,27,3.0,6.0,70,0.00,,,0.00,Wunderground v.1.15,2013-03-25 13:42:00,
2013-03-25 09:43:00,34.5,25.7,29.56,North,355,3.0,6.0,70,0.00,,,0.00,Wunderground v.1.15,2013-03-25 13:43:00,
2013-03-25 09:46:00,34.5,25.7,29.55,North,360,4.0,6.0,70,0.00,,,0.00,Wunderground v.1.15,2013-03-25 13:46:00,
2013-03-25 09:47:00,34.5,25.7,29.55,North,5,4.0,6.0,70,0.00,,,0.00,Wunderground v.1.15,2013-03-25 13:47:00,
2013-03-25 09:49:00,34.5,25.7,29.55,NNE,32,4.0,8.0,70,0.00,,,0.00,Wunderground v.1.15,2013-03-25 13:49:00,
2013-03-25 09:50:00,34.6,25.5,29.55,NNE,22,4.0,6.0,69,0.00,,,0.00,Wunderground v.1.15,2013-03-25 13:50:00,
2013-03-25 09:53:00,34.6,25.5,29.55,NNE,28,4.0,6.0,69,0.00,,,0.00,Wunderground v.1.15,2013-03-25 13:53:00,
2013-03-25 09:55:00,34.7,25.6,29.55,NNE,17,4.0,8.0,69,0.00,,,0.00,Wunderground v.1.15,2013-03-25 13:55:00,
2013-03-25 09:56:00,34.8,25.7,29.55,NE,35,5.0,8.0,69,0.00,,,0.00,Wunderground v.1.15,2013-03-25 13:56:00,
2013-03-25 09:57:00,34.8,25.7,29.55,NNE,12,5.0,8.0,69,0.00,,,0.00,Wunderground v.1.15,2013-03-25 13:57:00,
2013-03-25 09:59:00,35.0,25.9,29.55,ENE,57,5.0,8.0,69,0.00,,,0.00,Wunderground v.1.15,2013-03-25 13:59:00,
2013-03-25 10:01:00,35.1,25.9,29.55,NE,44,5.0,9.0,69,0.00,,,0.00,Wunderground v.1.15,2013-03-25 14:01:00,
2013-03-25 10:02:00,35.1,25.9,29.55,NE,43,5.0,9.0,69,0.00,,,0.00,Wunderground v.1.15,2013-03-25 14:02:00,
2013-03-25 10:04:00,35.2,25.7,29.55,NNE,33,5.0,9.0,68,0.00,,,0.00,Wunderground v.1.15,2013-03-25 14:04:00,
2013-03-25 10:07:00,35.3,25.8,29.55,NNE,23,5.0,9.0,68,0.00,,,0.00,Wunderground v.1.15,2013-03-25 14:07:00,
2013-03-25 10:08:00,35.4,25.9,29.55,North,5,4.0,9.0,68,0.00,,,0.00,Wunderground v.1.15,2013-03-25 14:08:00,
2013-03-25 10:10:00,35.5,26.0,29.54,North,360,4.0,9.0,68,0.00,,,0.00,Wunderground v.1.15,2013-03-25 14:10:00,
2013-03-25 10:12:00,35.7,26.2,29.54,NNE,24,4.0,9.0,68,0.00,,,0.00,Wunderground v.1.15,2013-03-25 14:12:00,
2013-03-25 10:14:00,35.8,26.3,29.54,NNE,16,4.0,9.0,68,0.00,,,0.00,Wunderground v.1.15,2013-03-25 14:14:00,
2013-03-25 10:17:00,36.1,26.2,29.54,NNE,25,3.0,9.0,67,0.00,,,0.00,Wunderground v.1.15,2013-03-25 14:17:00,
2013-03-25 10:18:00,36.2,26.6,29.54,North,10,3.0,9.0,68,0.00,,,0.00,Wunderground v.1.15,2013-03-25 14:18:00,
2013-03-25 10:20:00,36.4,26.5,29.54,NNE,24,3.0,9.0,67,0.00,,,0.00,Wunderground v.1.15,2013-03-25 14:20:00,
2013-03-25 10:21:00,36.5,26.6,29.54,NE,44,3.0,9.0,67,0.00,,,0.00,Wunderground v.1.15,2013-03-25 14:21:00,
2013-03-25 10:24:00,36.7,26.8,29.54,ENE,77,3.0,9.0,67,0.00,,,0.00,Wunderground v.1.15,2013-03-25 14:24:00,
2013-03-25 10:26:00,36.8,26.9,29.53,North,350,2.0,9.0,67,0.00,,,0.00,Wunderground v.1.15,2013-03-25 14:26:00,
2013-03-25 10:27:00,36.9,27.0,29.54,NE,49,2.0,9.0,67,0.00,,,0.00,Wunderground v.1.15,2013-03-25 14:27:00,
2013-03-25 10:30:00,37.0,26.7,29.53,NNE,17,3.0,9.0,66,0.00,,,0.00,Wunderground v.1.15,2013-03-25 14:30:00,
2013-03-25 10:31:00,37.0,26.7,29.53,NE,36,3.0,9.0,66,0.00,,,0.00,Wunderground v.1.15,2013-03-25 14:31:00,
2013-03-25 10:35:00,37.1,26.4,29.53,NNE,20,4.0,9.0,65,0.00,,,0.00,Wunderground v.1.15,2013-03-25 14:35:00,
2013-03-25 10:36:00,37.1,26.4,29.53,NNE,19,4.0,9.0,65,0.00,,,0.00,Wunderground v.1.15,2013-03-25 14:36:00,
2013-03-25 10:40:00,37.5,26.8,29.53,NNE,22,4.0,9.0,65,0.00,,,0.00,Wunderground v.1.15,2013-03-25 14:40:00,
2013-03-25 10:41:00,37.6,26.9,29.53,ENE,65,4.0,9.0,65,0.00,,,0.00,Wunderground v.1.15,2013-03-25 14:41:00,
2013-03-25 10:42:00,37.7,27.0,29.53,NNE,17,4.0,9.0,65,0.00,,,0.00,Wunderground v.1.15,2013-03-25 14:42:00,
2013-03-25 10:44:00,37.8,27.1,29.53,ENE,67,4.0,9.0,65,0.00,,,0.00,Wunderground v.1.15,2013-03-25 14:44:00,
2013-03-25 10:47:00,38.0,26.9,29.53,ENE,57,4.0,9.0,64,0.00,,,0.00,Wunderground v.1.15,2013-03-25 14:47:00,
2013-03-25 10:51:00,38.2,27.1,29.52,NNE,24,3.0,9.0,64,0.00,,,0.00,Wunderground v.1.15,2013-03-25 14:51:00,
2013-03-25 10:52:00,38.2,27.1,29.52,NNE,33,3.0,9.0,64,0.00,,,0.00,Wunderground v.1.15,2013-03-25 14:52:00,
2013-03-25 10:53:00,38.2,26.7,29.53,NE,38,3.0,9.0,63,0.00,,,0.00,Wunderground v.1.15,2013-03-25 14:53:00,
2013-03-25 10:57:00,38.4,27.3,29.52,NNE,32,3.0,9.0,64,0.00,,,0.00,Wunderground v.1.15,2013-03-25 14:57:00,
2013-03-25 10:58:00,38.5,27.4,29.52,NNE,22,3.0,9.0,64,0.00,,,0.00,Wunderground v.1.15,2013-03-25 14:58:00,
2013-03-25 11:00:00,38.6,27.5,29.52,North,9,3.0,9.0,64,0.00,,,0.00,Wunderground v.1.15,2013-03-25 15:00:00,
2013-03-25 11:03:00,38.7,27.6,29.52,ENE,67,3.0,9.0,64,0.00,,,0.00,Wunderground v.1.15,2013-03-25 15:03:00,
2013-03-25 11:04:00,38.7,27.6,29.52,ENE,67,2.0,9.0,64,0.00,,,0.00,Wunderground v.1.15,2013-03-25 15:04:00,
2013-03-25 11:06:00,38.7,27.6,29.52,ENE,67,3.0,9.0,64,0.00,,,0.00,Wunderground v.1.15,2013-03-25 15:06:00,
2013-03-25 11:09:00,39.1,27.2,29.52,ENE,76,2.0,9.0,62,0.00,,,0.00,Wunderground v.1.15,2013-03-25 15:09:00,
2013-03-25 11:10:00,39.1,27.6,29.52,NNE,24,2.0,9.0,63,0.00,,,0.00,Wunderground v.1.15,2013-03-25 15:10:00,
2013-03-25 11:12:00,39.2,27.7,29.52,NNE,26,3.0,9.0,63,0.00,,,0.00,Wunderground v.1.15,2013-03-25 15:12:00,
2013-03-25 11:14:00,39.3,27.7,29.52,NNE,32,3.0,9.0,63,0.00,,,0.00,Wunderground v.1.15,2013-03-25 15:14:00,
2013-03-25 11:15:00,39.4,27.8,29.52,East,86,3.0,9.0,63,0.00,,,0.00,Wunderground v.1.15,2013-03-25 15:15:00,
2013-03-25 11:19:00,39.6,27.6,29.51,NNE,26,4.0,9.0,62,0.00,,,0.00,Wunderground v.1.15,2013-03-25 15:19:00,
2013-03-25 11:22:00,39.6,27.6,29.51,NE,44,4.0,9.0,62,0.00,,,0.00,Wunderground v.1.15,2013-03-25 15:22:00,
2013-03-25 11:23:00,39.6,27.6,29.51,NNE,29,4.0,9.0,62,0.00,,,0.00,Wunderground v.1.15,2013-03-25 15:23:00,
2013-03-25 11:25:00,39.8,27.8,29.51,NNE,13,5.0,9.0,62,0.00,,,0.00,Wunderground v.1.15,2013-03-25 15:25:00,
2013-03-25 11:28:00,40.0,28.0,29.51,North,355,4.0,9.0,62,0.00,,,0.00,Wunderground v.1.15,2013-03-25 15:28:00,
2013-03-25 11:33:00,40.2,27.8,29.50,NNE,31,3.0,9.0,61,0.00,,,0.00,Wunderground v.1.15,2013-03-25 15:33:00,
2013-03-25 11:34:00,40.2,27.8,29.50,NNE,31,3.0,9.0,61,0.00,,,0.00,Wunderground v.1.15,2013-03-25 15:34:00,
2013-03-25 11:35:00,40.3,28.3,29.50,NE,39,3.0,9.0,62,0.00,,,0.00,Wunderground v.1.15,2013-03-25 15:35:00,
2013-03-25 11:38:00,40.4,28.0,29.50,NNE,19,3.0,9.0,61,0.00,,,0.00,Wunderground v.1.15,2013-03-25 15:38:00,
2013-03-25 11:39:00,40.5,28.1,29.50,NNE,32,2.0,9.0,61,0.00,,,0.00,Wunderground v.1.15,2013-03-25 15:39:00,
2013-03-25 11:43:00,40.7,28.3,29.50,NE,51,2.0,9.0,61,0.00,,,0.00,Wunderground v.1.15,2013-03-25 15:43:00,
2013-03-25 11:45:00,40.7,27.9,29.50,NNE,26,3.0,10.0,60,0.00,,,0.00,Wunderground v.1.15,2013-03-25 15:45:00,
2013-03-25 11:46:00,40.7,27.9,29.50,North,360,4.0,10.0,60,0.00,,,0.00,Wunderground v.1.15,2013-03-25 15:46:00,
2013-03-25 11:51:00,41.0,27.8,29.50,NW,319,4.0,9.0,59,0.00,,,0.00,Wunderground v.1.15,2013-03-25 15:51:00,
2013-03-25 11:54:00,41.2,27.9,29.50,NNE,15,4.0,9.0,59,0.00,,,0.00,Wunderground v.1.15,2013-03-25 15:54:00,
2013-03-25 11:55:00,41.2,27.9,29.50,NE,38,3.0,9.0,59,0.00,,,0.00,Wunderground v.1.15,2013-03-25 15:55:00,
2013-03-25 11:56:00,41.3,27.6,29.50,NE,38,4.0,9.0,58,0.00,,,0.00,Wunderground v.1.15,2013-03-25 15:56:00,
2013-03-25 11:57:00,41.4,28.1,29.50,North,355,3.0,9.0,59,0.00,,,0.00,Wunderground v.1.15,2013-03-25 15:57:00,
2013-03-25 12:00:00,41.8,28.9,29.50,West,277,3.0,3.0,60,0.00,,,0.00,Wunderground v.1.15,2013-03-25 16:00:00,
2013-03-25 12:03:00,42.1,27.9,29.50,WNW,290,3.0,11.0,57,0.00,,,0.00,Wunderground v.1.15,2013-03-25 16:03:00,
2013-03-25 12:04:00,42.3,27.7,29.50,NE,51,3.0,11.0,56,0.00,,,0.00,Wunderground v.1.15,2013-03-25 16:04:00,
2013-03-25 12:08:00,42.3,26.8,29.49,ESE,114,5.0,11.0,54,0.00,,,0.00,Wunderground v.1.15,2013-03-25 16:08:00,
2013-03-25 12:11:00,42.3,26.8,29.49,ENE,71,7.0,7.0,54,0.00,,,0.00,Wunderground v.1.15,2013-03-25 16:11:00,
2013-03-25 12:12:00,42.3,26.4,29.49,East,90,7.0,8.0,53,0.00,,,0.00,Wunderground v.1.15,2013-03-25 16:12:00,
2013-03-25 12:15:00,42.4,26.9,29.49,NE,44,8.0,12.0,54,0.00,,,0.00,Wunderground v.1.15,2013-03-25 16:15:00,
2013-03-25 12:18:00,42.6,27.1,29.49,NNW,347,6.0,12.0,54,0.00,,,0.00,Wunderground v.1.15,2013-03-25 16:18:00,
2013-03-25 12:19:00,42.6,27.1,29.49,NNW,329,6.0,12.0,54,0.00,,,0.00,Wunderground v.1.15,2013-03-25 16:19:00,
2013-03-25 12:20:00,42.7,26.7,29.49,NNW,342,6.0,6.0,53,0.00,,,0.00,Wunderground v.1.15,2013-03-25 16:20:00,
2013-03-25 12:23:00,42.8,26.8,29.49,ESE,102,5.0,11.0,53,0.00,,,0.00,Wunderground v.1.15,2013-03-25 16:23:00,
2013-03-25 12:25:00,42.6,25.7,29.49,ENE,78,5.0,12.0,51,0.00,,,0.00,Wunderground v.1.15,2013-03-25 16:25:00,
2013-03-25 12:29:00,42.3,26.4,29.49,ENE,77,7.0,13.0,53,0.00,,,0.00,Wunderground v.1.15,2013-03-25 16:29:00,
2013-03-25 12:31:00,42.4,26.9,29.49,WSW,253,7.0,11.0,54,0.00,,,0.00,Wunderground v.1.15,2013-03-25 16:31:00,
2013-03-25 12:33:00,42.3,25.9,29.49,SE,125,7.0,11.0,52,0.00,,,0.00,Wunderground v.1.15,2013-03-25 16:33:00,
2013-03-25 12:34:00,42.3,25.9,29.49,WNW,296,7.0,11.0,52,0.00,,,0.00,Wunderground v.1.15,2013-03-25 16:34:00,
2013-03-25 12:37:00,42.3,25.9,29.48,NNE,19,6.0,11.0,52,0.00,,,0.00,Wunderground v.1.15,2013-03-25 16:37:00,
2013-03-25 12:39:00,42.3,25.9,29.48,NNW,336,5.0,11.0,52,0.00,,,0.00,Wunderground v.1.15,2013-03-25 16:39:00,
2013-03-25 12:42:00,42.3,26.4,29.48,ESE,120,5.0,11.0,53,0.00,,,0.00,Wunderground v.1.15,2013-03-25 16:42:00,
2013-03-25 12:43:00,42.3,25.9,29.48,ENE,61,5.0,11.0,52,0.00,,,0.00,Wunderground v.1.15,2013-03-25 16:43:00,
2013-03-25 12:45:00,42.4,26.5,29.48,WSW,258,5.0,11.0,53,0.00,,,0.00,Wunderground v.1.15,2013-03-25 16:45:00,
2013-03-25 12:47:00,42.4,26.5,29.48,ENE,61,4.0,11.0,53,0.00,,,0.00,Wunderground v.1.15,2013-03-25 16:47:00,
2013-03-25 12:48:00,42.4,26.5,29.48,North,355,4.0,11.0,53,0.00,,,0.00,Wunderground v.1.15,2013-03-25 16:48:00,
2013-03-25 12:50:00,42.4,26.5,29.48,NNW,345,3.0,11.0,53,0.00,,,0.00,Wunderground v.1.15,2013-03-25 16:50:00,
2013-03-25 12:52:00,42.5,26.6,29.48,South,182,3.0,11.0,53,0.00,,,0.00,Wunderground v.1.15,2013-03-25 16:52:00,
2013-03-25 12:54:00,42.5,27.0,29.48,East,84,3.0,11.0,54,0.00,,,0.00,Wunderground v.1.15,2013-03-25 16:54:00,
2013-03-25 12:58:00,42.7,27.2,29.48,NNE,19,2.0,11.0,54,0.00,,,0.00,Wunderground v.1.15,2013-03-25 16:58:00,
2013-03-25 12:59:00,42.7,27.2,29.48,ESE,119,2.0,11.0,54,0.00,,,0.00,Wunderground v.1.15,2013-03-25 16:59:00,
2013-03-25 13:00:00,42.7,26.7,29.48,West,279,1.0,12.0,53,0.00,,,0.00,Wunderground v.1.15,2013-03-25 17:00:00,
2013-03-25 13:02:00,42.7,26.3,29.47,NE,55,1.0,12.0,52,0.00,,,0.00,Wunderground v.1.15,2013-03-25 17:02:00,
2013-03-25 13:04:00,42.6,26.2,29.47,NNW,337,2.0,12.0,52,0.00,,,0.00,Wunderground v.1.15,2013-03-25 17:04:00,
2013-03-25 13:06:00,42.6,26.2,29.47,East,81,2.0,12.0,52,0.00,,,0.00,Wunderground v.1.15,2013-03-25 17:06:00,
2013-03-25 13:07:00,42.7,25.8,29.47,WSW,247,2.0,12.0,51,0.00,,,0.00,Wunderground v.1.15,2013-03-25 17:07:00,
2013-03-25 13:10:00,42.7,25.8,29.47,North,360,3.0,12.0,51,0.00,,,0.00,Wunderground v.1.15,2013-03-25 17:10:00,
2013-03-25 13:15:00,42.8,25.9,29.47,NW,322,3.0,12.0,51,0.00,,,0.00,Wunderground v.1.15,2013-03-25 17:15:00,
2013-03-25 13:16:00,42.8,25.4,29.47,NNE,12,3.0,12.0,50,0.00,,,0.00,Wunderground v.1.15,2013-03-25 17:16:00,
2013-03-25 13:19:00,42.7,25.8,29.47,ENE,72,3.0,12.0,51,0.00,,,0.00,Wunderground v.1.15,2013-03-25 17:19:00,
2013-03-25 13:21:00,42.7,25.8,29.47,NE,42,3.0,4.0,51,0.00,,,0.00,Wunderground v.1.15,2013-03-25 17:21:00,
2013-03-25 13:22:00,42.7,25.8,29.47,West,266,3.0,5.0,51,0.00,,,0.00,Wunderground v.1.15,2013-03-25 17:22:00,
2013-03-25 13:24:00,42.7,25.3,29.46,ENE,74,4.0,12.0,50,0.00,,,0.00,Wunderground v.1.15,2013-03-25 17:24:00,
2013-03-25 13:27:00,42.6,25.2,29.46,North,360,5.0,12.0,50,0.00,,,0.00,Wunderground v.1.15,2013-03-25 17:27:00,
2013-03-25 13:29:00,42.5,25.6,29.46,West,273,5.0,12.0,51,0.00,,,0.00,Wunderground v.1.15,2013-03-25 17:29:00,
2013-03-25 13:30:00,42.5,26.1,29.46,SSE,159,5.0,5.0,52,0.00,,,0.00,Wunderground v.1.15,2013-03-25 17:30:00,
2013-03-25 13:33:00,42.5,25.6,29.46,NE,44,4.0,12.0,51,0.00,,,0.00,Wunderground v.1.15,2013-03-25 17:33:00,
2013-03-25 13:34:00,42.4,25.5,29.46,SSW,198,4.0,12.0,51,0.00,,,0.00,Wunderground v.1.15,2013-03-25 17:34:00,
2013-03-25 13:37:00,42.5,25.6,29.46,SSW,194,3.0,12.0,51,0.00,,,0.00,Wunderground v.1.15,2013-03-25 17:37:00,
2013-03-25 13:38:00,42.5,26.1,29.46,WNW,290,3.0,12.0,52,0.00,,,0.00,Wunderground v.1.15,2013-03-25 17:38:00,
2013-03-25 13:39:00,42.5,26.1,29.46,North,9,3.0,12.0,52,0.00,,,0.00,Wunderground v.1.15,2013-03-25 17:39:00,
2013-03-25 13:42:00,42.6,26.2,29.46,NE,39,3.0,12.0,52,0.00,,,0.00,Wunderground v.1.15,2013-03-25 17:42:00,
2013-03-25 13:43:00,42.6,26.2,29.46,ENE,63,3.0,12.0,52,0.00,,,0.00,Wunderground v.1.15,2013-03-25 17:43:00,
2013-03-25 13:47:00,42.6,25.7,29.45,North,351,2.0,12.0,51,0.00,,,0.00,Wunderground v.1.15,2013-03-25 17:47:00,
2013-03-25 13:48:00,42.7,25.8,29.45,West,263,2.0,12.0,51,0.00,,,0.00,Wunderground v.1.15,2013-03-25 17:48:00,
2013-03-25 13:52:00,42.8,26.4,29.45,NW,326,2.0,12.0,52,0.00,,,0.00,Wunderground v.1.15,2013-03-25 17:52:00,
2013-03-25 13:53:00,42.9,26.5,29.45,NNE,24,2.0,12.0,52,0.00,,,0.00,Wunderground v.1.15,2013-03-25 17:53:00,
2013-03-25 13:59:00,42.9,26.0,29.45,East,101,2.0,14.0,51,0.00,,,0.00,Wunderground v.1.15,2013-03-25 17:59:00,
2013-03-25 14:02:00,42.8,25.4,29.45,ESE,105,3.0,5.0,50,0.00,,,0.00,Wunderground v.1.15,2013-03-25 18:02:00,
2013-03-25 14:03:00,42.7,25.8,29.45,NNW,348,4.0,10.0,51,0.00,,,0.00,Wunderground v.1.15,2013-03-25 18:03:00,
2013-03-25 14:07:00,42.5,26.1,29.45,East,90,3.0,10.0,52,0.00,,,0.00,Wunderground v.1.15,2013-03-25 18:07:00,
2013-03-25 14:08:00,42.5,26.1,29.45,NNW,348,3.0,10.0,52,0.00,,,0.00,Wunderground v.1.15,2013-03-25 18:08:00,
2013-03-25 14:09:00,42.5,26.1,29.44,NE,41,4.0,10.0,52,0.00,,,0.00,Wunderground v.1.15,2013-03-25 18:09:00,
2013-03-25 14:10:00,42.4,25.1,29.44,SW,215,4.0,10.0,50,0.00,,,0.00,Wunderground v.1.15,2013-03-25 18:10:00,
2013-03-25 14:14:00,42.2,25.8,29.44,NNE,20,4.0,10.0,52,0.00,,,0.00,Wunderground v.1.15,2013-03-25 18:14:00,
2013-03-25 14:15:00,42.2,25.8,29.44,North,355,4.0,10.0,52,0.00,,,0.00,Wunderground v.1.15,2013-03-25 18:15:00,
2013-03-25 14:16:00,42.2,25.8,29.44,NNE,19,5.0,10.0,52,0.00,,,0.00,Wunderground v.1.15,2013-03-25 18:16:00,
2013-03-25 14:20:00,42.1,25.7,29.44,West,270,4.0,4.0,52,0.00,,,0.00,Wunderground v.1.15,2013-03-25 18:20:00,
2013-03-25 14:21:00,42.1,25.7,29.44,SW,229,3.0,10.0,52,0.00,,,0.00,Wunderground v.1.15,2013-03-25 18:21:00,
2013-03-25 14:23:00,42.1,25.7,29.44,North,360,3.0,10.0,52,0.00,,,0.00,Wunderground v.1.15,2013-03-25 18:23:00,
2013-03-25 14:26:00,42.2,26.3,29.44,South,188,3.0,10.0,53,0.00,,,0.00,Wunderground v.1.15,2013-03-25 18:26:00,
2013-03-25 14:27:00,42.2,26.3,29.44,NNE,20,3.0,10.0,53,0.00,,,0.00,Wunderground v.1.15,2013-03-25 18:27:00,
2013-03-25 14:31:00,42.2,25.8,29.44,NE,37,3.0,10.0,52,0.00,,,0.00,Wunderground v.1.15,2013-03-25 18:31:00,
2013-03-25 14:32:00,42.2,25.8,29.44,West,265,3.0,10.0,52,0.00,,,0.00,Wunderground v.1.15,2013-03-25 18:32:00,
2013-03-25 14:34:00,42.1,25.7,29.44,NNW,328,3.0,10.0,52,0.00,,,0.00,Wunderground v.1.15,2013-03-25 18:34:00,
2013-03-25 14:36:00,42.1,25.3,29.43,WNW,290,3.0,10.0,51,0.00,,,0.00,Wunderground v.1.15,2013-03-25 18:36:00,
2013-03-25 14:42:00,42.0,25.2,29.43,East,93,3.0,10.0,51,0.00,,,0.00,Wunderground v.1.15,2013-03-25 18:42:00,
2013-03-25 14:43:00,42.0,25.2,29.43,NNW,348,3.0,10.0,51,0.00,,,0.00,Wunderground v.1.15,2013-03-25 18:43:00,
2013-03-25 14:46:00,42.0,25.6,29.43,North,9,3.0,10.0,52,0.00,,,0.00,Wunderground v.1.15,2013-03-25 18:46:00,
2013-03-25 14:49:00,42.0,24.7,29.43,NE,38,4.0,10.0,50,0.00,,,0.00,Wunderground v.1.15,2013-03-25 18:49:00,
2013-03-25 14:50:00,42.0,24.7,29.43,NE,49,4.0,4.0,50,0.00,,,0.00,Wunderground v.1.15,2013-03-25 18:50:00,
2013-03-25 14:53:00,42.0,25.2,29.43,East,85,4.0,10.0,51,0.00,,,0.00,Wunderground v.1.15,2013-03-25 18:53:00,
2013-03-25 14:55:00,42.0,25.2,29.42,ENE,60,4.0,10.0,51,0.00,,,0.00,Wunderground v.1.15,2013-03-25 18:55:00,
2013-03-25 15:00:00,42.1,25.3,29.42,NE,50,3.0,11.0,51,0.00,,,0.00,Wunderground v.1.15,2013-03-25 19:00:00,
2013-03-25 15:02:00,42.1,25.3,29.42,NW,315,3.0,11.0,51,0.00,,,0.00,Wunderground v.1.15,2013-03-25 19:02:00,
2013-03-25 15:04:00,42.1,25.3,29.42,NW,309,3.0,11.0,51,0.00,,,0.00,Wunderground v.1.15,2013-03-25 19:04:00,
2013-03-25 15:09:00,42.4,25.5,29.41,North,5,3.0,11.0,51,0.00,,,0.00,Wunderground v.1.15,2013-03-25 19:09:00,
2013-03-25 15:10:00,42.4,25.5,29.41,NW,323,3.0,3.0,51,0.00,,,0.00,Wunderground v.1.15,2013-03-25 19:10:00,
2013-03-25 15:13:00,42.5,25.6,29.41,NE,44,2.0,11.0,51,0.00,,,0.00,Wunderground v.1.15,2013-03-25 19:13:00,
2013-03-25 15:14:00,42.6,26.2,29.41,NNW,342,2.0,11.0,52,0.00,,,0.00,Wunderground v.1.15,2013-03-25 19:14:00,
2013-03-25 15:15:00,42.6,25.7,29.41,NNW,336,2.0,11.0,51,0.00,,,0.00,Wunderground v.1.15,2013-03-25 19:15:00,
2013-03-25 15:18:00,42.5,26.1,29.40,NW,310,3.0,11.0,52,0.00,,,0.00,Wunderground v.1.15,2013-03-25 19:18:00,
2013-03-25 15:20:00,42.5,26.1,29.40,ENE,61,2.0,11.0,52,0.00,,,0.00,Wunderground v.1.15,2013-03-25 19:20:00,
2013-03-25 15:21:00,42.5,26.1,29.40,ENE,72,2.0,11.0,52,0.00,,,0.00,Wunderground v.1.15,2013-03-25 19:21:00,
2013-03-25 15:23:00,42.4,25.5,29.40,SSE,153,2.0,11.0,51,0.00,,,0.00,Wunderground v.1.15,2013-03-25 19:23:00,
2013-03-25 15:27:00,42.4,26.0,29.40,NW,322,2.0,11.0,52,0.00,,,0.00,Wunderground v.1.15,2013-03-25 19:27:00,
2013-03-25 15:31:00,42.3,25.9,29.39,NW,325,2.0,11.0,52,0.00,,,0.00,Wunderground v.1.15,2013-03-25 19:31:00,
2013-03-25 15:33:00,42.3,25.9,29.39,NE,39,2.0,11.0,52,0.00,,,0.00,Wunderground v.1.15,2013-03-25 19:33:00,
2013-03-25 15:35:00,42.4,26.0,29.39,NNW,343,3.0,11.0,52,0.00,,,0.00,Wunderground v.1.15,2013-03-25 19:35:00,
2013-03-25 15:37:00,42.4,26.0,29.39,ENE,57,3.0,11.0,52,0.00,,,0.00,Wunderground v.1.15,2013-03-25 19:37:00,
2013-03-25 15:40:00,42.5,25.1,29.39,ENE,75,2.0,11.0,50,0.00,,,0.00,Wunderground v.1.15,2013-03-25 19:40:00,
2013-03-25 15:44:00,42.5,25.6,29.38,North,355,3.0,11.0,51,0.00,,,0.00,Wunderground v.1.15,2013-03-25 19:44:00,
2013-03-25 15:46:00,42.4,25.1,29.38,NNE,32,4.0,11.0,50,0.00,,,0.00,Wunderground v.1.15,2013-03-25 19:46:00,
2013-03-25 15:48:00,42.4,25.1,29.38,East,98,4.0,11.0,50,0.00,,,0.00,Wunderground v.1.15,2013-03-25 19:48:00,
2013-03-25 15:50:00,42.4,25.1,29.38,SW,236,4.0,11.0,50,0.00,,,0.00,Wunderground v.1.15,2013-03-25 19:50:00,
2013-03-25 15:51:00,42.4,25.1,29.38,NNW,336,4.0,11.0,50,0.00,,,0.00,Wunderground v.1.15,2013-03-25 19:51:00,
2013-03-25 15:57:00,42.5,25.6,29.38,NE,53,4.0,11.0,51,0.00,,,0.00,Wunderground v.1.15,2013-03-25 19:57:00,
2013-03-25 15:58:00,42.6,25.7,29.38,NNE,22,4.0,11.0,51,0.00,,,0.00,Wunderground v.1.15,2013-03-25 19:58:00,
2013-03-25 15:59:00,42.6,25.2,29.37,North,5,4.0,11.0,50,0.00,,,0.00,Wunderground v.1.15,2013-03-25 19:59:00,
2013-03-25 16:03:00,42.6,25.7,29.37,WNW,298,4.0,14.0,51,0.00,,,0.00,Wunderground v.1.15,2013-03-25 20:03:00,
2013-03-25 16:05:00,42.7,26.3,29.37,NNW,338,4.0,14.0,52,0.00,,,0.00,Wunderground v.1.15,2013-03-25 20:05:00,
2013-03-25 16:10:00,42.5,26.1,29.38,NNE,29,4.0,14.0,52,0.00,,,0.00,Wunderground v.1.15,2013-03-25 20:10:00,
2013-03-25 16:11:00,42.4,26.0,29.37,NNW,332,5.0,14.0,52,0.00,,,0.00,Wunderground v.1.15,2013-03-25 20:11:00,
2013-03-25 16:15:00,42.3,25.9,29.38,NNE,16,6.0,14.0,52,0.00,,,0.00,Wunderground v.1.15,2013-03-25 20:15:00,
2013-03-25 16:19:00,42.1,26.2,29.38,NNE,29,7.0,14.0,53,0.00,,,0.00,Wunderground v.1.15,2013-03-25 20:19:00,
2013-03-25 16:20:00,42.1,26.6,29.38,SE,141,6.0,6.0,54,0.00,,,0.00,Wunderground v.1.15,2013-03-25 20:20:00,
2013-03-25 16:21:00,42.1,26.6,29.38,NNE,30,5.0,14.0,54,0.00,,,0.00,Wunderground v.1.15,2013-03-25 20:21:00,
2013-03-25 16:25:00,42.0,26.5,29.38,North,10,4.0,14.0,54,0.00,,,0.00,Wunderground v.1.15,2013-03-25 20:25:00,
2013-03-25 16:27:00,41.9,26.4,29.38,NNE,24,4.0,14.0,54,0.00,,,0.00,Wunderground v.1.15,2013-03-25 20:27:00,
2013-03-25 16:29:00,41.9,26.9,29.38,ENE,77,4.0,14.0,55,0.00,,,0.00,Wunderground v.1.15,2013-03-25 20:29:00,
2013-03-25 16:32:00,41.8,26.8,29.39,WSW,242,5.0,14.0,55,0.00,,,0.00,Wunderground v.1.15,2013-03-25 20:32:00,
2013-03-25 16:33:00,41.7,26.7,29.39,NE,39,5.0,14.0,55,0.00,,,0.00,Wunderground v.1.15,2013-03-25 20:33:00,
2013-03-25 16:35:00,41.7,27.1,29.39,NE,44,4.0,14.0,56,0.00,,,0.00,Wunderground v.1.15,2013-03-25 20:35:00,
2013-03-25 16:37:00,41.6,27.1,29.39,NNE,28,4.0,14.0,56,0.00,,,0.00,Wunderground v.1.15,2013-03-25 20:37:00,
2013-03-25 16:40:00,41.6,27.1,29.39,NNE,18,3.0,3.0,56,0.00,,,0.00,Wunderground v.1.15,2013-03-25 20:40:00,
2013-03-25 16:41:00,41.6,27.1,29.39,NNE,19,3.0,6.0,56,0.00,,,0.00,Wunderground v.1.15,2013-03-25 20:41:00,
2013-03-25 16:43:00,41.6,27.1,29.39,NNE,22,3.0,14.0,56,0.00,,,0.00,Wunderground v.1.15,2013-03-25 20:43:00,
2013-03-25 16:44:00,41.6,27.1,29.38,East,80,3.0,14.0,56,0.00,,,0.00,Wunderground v.1.15,2013-03-25 20:44:00,
2013-03-25 16:48:00,41.6,27.1,29.39,NE,44,3.0,14.0,56,0.00,,,0.00,Wunderground v.1.15,2013-03-25 20:48:00,
2013-03-25 16:50:00,41.6,27.1,29.39,ENE,65,4.0,14.0,56,0.00,,,0.00,Wunderground v.1.15,2013-03-25 20:50:00,
2013-03-25 16:53:00,41.5,27.0,29.38,NW,326,4.0,14.0,56,0.00,,,0.00,Wunderground v.1.15,2013-03-25 20:53:00,
2013-03-25 16:58:00,41.5,27.0,29.39,NE,45,4.0,14.0,56,0.00,,,0.00,Wunderground v.1.15,2013-03-25 20:58:00,
2013-03-25 16:59:00,41.5,27.0,29.39,North,9,4.0,14.0,56,0.00,,,0.00,Wunderground v.1.15,2013-03-25 20:59:00,
2013-03-25 17:03:00,41.5,27.0,29.39,NNE,18,4.0,10.0,56,0.00,,,0.00,Wunderground v.1.15,2013-03-25 21:03:00,
2013-03-25 17:04:00,41.5,27.0,29.38,North,355,4.0,10.0,56,0.00,,,0.00,Wunderground v.1.15,2013-03-25 21:04:00,
2013-03-25 17:05:00,41.5,27.0,29.39,NNE,21,4.0,10.0,56,0.00,,,0.00,Wunderground v.1.15,2013-03-25 21:05:00,
2013-03-25 17:08:00,41.4,26.9,29.39,North,355,3.0,10.0,56,0.00,,,0.00,Wunderground v.1.15,2013-03-25 21:08:00,
2013-03-25 17:09:00,41.5,27.0,29.39,NNE,28,3.0,10.0,56,0.00,,,0.00,Wunderground v.1.15,2013-03-25 21:09:00,
2013-03-25 17:11:00,41.5,27.4,29.39,WNW,283,3.0,4.0,57,0.00,,,0.00,Wunderground v.1.15,2013-03-25 21:11:00,
2013-03-25 17:13:00,41.4,27.3,29.39,WNW,285,3.0,8.0,57,0.00,,,0.00,Wunderground v.1.15,2013-03-25 21:13:00,
2013-03-25 17:14:00,41.4,26.9,29.39,NNE,27,3.0,8.0,56,0.00,,,0.00,Wunderground v.1.15,2013-03-25 21:14:00,
2013-03-25 17:17:00,41.4,26.9,29.39,ENE,57,3.0,8.0,56,0.00,,,0.00,Wunderground v.1.15,2013-03-25 21:17:00,
2013-03-25 17:18:00,41.4,26.9,29.39,NNE,13,3.0,8.0,56,0.00,,,0.00,Wunderground v.1.15,2013-03-25 21:18:00,
2013-03-25 17:20:00,41.4,27.3,29.39,NW,304,3.0,3.0,57,0.00,,,0.00,Wunderground v.1.15,2013-03-25 21:20:00,
2013-03-25 17:22:00,41.3,28.9,29.40,NNW,347,2.0,8.0,61,0.00,,,0.00,Wunderground v.1.15,2013-03-25 21:22:00,
2013-03-25 17:24:00,41.2,27.1,29.40,ENE,57,2.0,12.0,57,0.00,,,0.00,Wunderground v.1.15,2013-03-25 21:24:00,
2013-03-25 17:25:00,41.2,27.1,29.40,NE,44,2.0,12.0,57,0.00,,,0.00,Wunderground v.1.15,2013-03-25 21:25:00,
2013-03-25 17:29:00,41.1,27.0,29.39,NNW,331,3.0,12.0,57,0.00,,,0.00,Wunderground v.1.15,2013-03-25 21:29:00,
2013-03-25 17:30:00,41.2,27.1,29.39,ENE,76,3.0,3.0,57,0.00,,,0.00,Wunderground v.1.15,2013-03-25 21:30:00,
2013-03-25 17:32:00,41.1,27.0,29.39,NW,313,3.0,8.0,57,0.00,,,0.00,Wunderground v.1.15,2013-03-25 21:32:00,
2013-03-25 17:34:00,41.0,26.9,29.40,North,5,4.0,8.0,57,0.00,,,0.00,Wunderground v.1.15,2013-03-25 21:34:00,
2013-03-25 17:37:00,41.0,26.9,29.40,ESE,111,3.0,8.0,57,0.00,,,0.00,Wunderground v.1.15,2013-03-25 21:37:00,
2013-03-25 17:39:00,41.0,26.9,29.40,NE,39,3.0,9.0,57,0.00,,,0.00,Wunderground v.1.15,2013-03-25 21:39:00,
2013-03-25 17:42:00,41.1,26.6,29.39,NNE,15,4.0,8.0,56,0.00,,,0.00,Wunderground v.1.15,2013-03-25 21:42:00,
2013-03-25 17:44:00,41.1,27.0,29.40,North,5,4.0,8.0,57,0.00,,,0.00,Wunderground v.1.15,2013-03-25 21:44:00,
2013-03-25 17:45:00,41.0,26.9,29.39,North,355,4.0,8.0,57,0.00,,,0.00,Wunderground v.1.15,2013-03-25 21:45:00,
2013-03-25 17:50:00,41.0,26.9,29.40,NNE,19,4.0,8.0,57,0.00,,,0.00,Wunderground v.1.15,2013-03-25 21:50:00,
2013-03-25 17:52:00,41.0,26.9,29.40,East,95,4.0,8.0,57,0.00,,,0.00,Wunderground v.1.15,2013-03-25 21:52:00,
2013-03-25 17:57:00,40.9,26.8,29.40,NE,38,4.0,8.0,57,0.00,,,0.00,Wunderground v.1.15,2013-03-25 21:57:00,
2013-03-25 17:58:00,40.9,26.8,29.39,SSW,201,4.0,8.0,57,0.00,,,0.00,Wunderground v.1.15,2013-03-25 21:58:00,
2013-03-25 18:02:00,40.8,27.2,29.40,NNW,329,3.0,16.0,58,0.00,,,0.00,Wunderground v.1.15,2013-03-25 22:02:00,
2013-03-25 18:03:00,40.8,27.2,29.40,NNW,332,3.0,16.0,58,0.00,,,0.00,Wunderground v.1.15,2013-03-25 22:03:00,
2013-03-25 18:08:00,40.7,27.1,29.40,SE,125,2.0,16.0,58,0.00,,,0.00,Wunderground v.1.15,2013-03-25 22:08:00,
2013-03-25 18:10:00,40.7,27.1,29.40,West,265,2.0,2.0,58,0.00,,,0.00,Wunderground v.1.15,2013-03-25 22:10:00,
2013-03-25 18:12:00,40.8,27.6,29.40,NW,325,2.0,16.0,59,0.00,,,0.00,Wunderground v.1.15,2013-03-25 22:12:00,
2013-03-25 18:13:00,40.8,27.6,29.40,NE,49,2.0,16.0,59,0.00,,,0.00,Wunderground v.1.15,2013-03-25 22:13:00,
2013-03-25 18:18:00,40.7,27.5,29.40,NE,46,2.0,16.0,59,0.00,,,0.00,Wunderground v.1.15,2013-03-25 22:18:00,
2013-03-25 18:23:00,40.8,27.6,29.41,ENE,67,3.0,16.0,59,0.00,,,0.00,Wunderground v.1.15,2013-03-25 22:23:00,
2013-03-25 18:24:00,40.8,27.6,29.41,ENE,61,3.0,16.0,59,0.00,,,0.00,Wunderground v.1.15,2013-03-25 22:24:00,
2013-03-25 18:26:00,40.8,27.6,29.41,NNW,331,4.0,16.0,59,0.00,,,0.00,Wunderground v.1.15,2013-03-25 22:26:00,
2013-03-25 18:27:00,40.7,27.9,29.41,ENE,61,4.0,16.0,60,0.00,,,0.00,Wunderground v.1.15,2013-03-25 22:27:00,
2013-03-25 18:31:00,40.7,27.9,29.41,ENE,59,3.0,16.0,60,0.00,,,0.00,Wunderground v.1.15,2013-03-25 22:31:00,
2013-03-25 18:32:00,40.7,27.9,29.41,NE,38,3.0,16.0,60,0.00,,,0.00,Wunderground v.1.15,2013-03-25 22:32:00,
2013-03-25 18:33:00,40.7,27.9,29.41,NNE,17,3.0,16.0,60,0.00,,,0.00,Wunderground v.1.15,2013-03-25 22:33:00,
2013-03-25 18:36:00,40.6,27.8,29.41,WSW,246,2.0,16.0,60,0.00,,,0.00,Wunderground v.1.15,2013-03-25 22:36:00,
2013-03-25 18:37:00,40.6,27.8,29.41,ENE,73,1.0,16.0,60,0.00,,,0.00,Wunderground v.1.15,2013-03-25 22:37:00,
2013-03-25 18:38:00,40.6,28.2,29.41,ENE,59,1.0,16.0,61,0.00,,,0.00,Wunderground v.1.15,2013-03-25 22:38:00,
2013-03-25 18:43:00,40.5,28.1,29.41,West,279,1.0,16.0,61,0.00,,,0.00,Wunderground v.1.15,2013-03-25 22:43:00,
2013-03-25 18:44:00,40.5,28.1,29.41,NE,38,1.0,16.0,61,0.00,,,0.00,Wunderground v.1.15,2013-03-25 22:44:00,
2013-03-25 18:46:00,40.5,28.1,29.41,NNW,340,1.0,16.0,61,0.00,,,0.00,Wunderground v.1.15,2013-03-25 22:46:00,
2013-03-25 18:48:00,40.5,28.1,29.41,SE,126,1.0,16.0,61,0.00,,,0.00,Wunderground v.1.15,2013-03-25 22:48:00,
2013-03-25 18:50:00,40.5,28.1,29.41,North,5,2.0,2.0,61,0.00,,,0.00,Wunderground v.1.15,2013-03-25 22:50:00,
2013-03-25 18:53:00,40.5,28.1,29.41,NW,313,2.0,16.0,61,0.00,,,0.00,Wunderground v.1.15,2013-03-25 22:53:00,
2013-03-25 18:54:00,40.5,28.5,29.41,South,184,2.0,16.0,62,0.00,,,0.00,Wunderground v.1.15,2013-03-25 22:54:00,
2013-03-25 18:55:00,40.5,28.1,29.41,SE,132,2.0,16.0,61,0.00,,,0.00,Wunderground v.1.15,2013-03-25 22:55:00,
2013-03-25 18:57:00,40.4,28.0,29.41,South,172,2.0,16.0,61,0.00,,,0.00,Wunderground v.1.15,2013-03-25 22:57:00,
2013-03-25 18:58:00,40.4,28.0,29.41,North,5,2.0,16.0,61,0.00,,,0.00,Wunderground v.1.15,2013-03-25 22:58:00,
2013-03-25 19:00:00,40.4,28.4,29.41,West,272,2.0,2.0,62,0.00,,,0.00,Wunderground v.1.15,2013-03-25 23:00:00,
2013-03-25 19:01:00,40.4,28.4,29.41,ESE,105,2.0,6.0,62,0.00,,,0.00,Wunderground v.1.15,2013-03-25 23:01:00,
2013-03-25 19:04:00,40.4,28.4,29.41,NW,315,2.0,6.0,62,0.00,,,0.00,Wunderground v.1.15,2013-03-25 23:04:00,
2013-03-25 19:05:00,40.4,28.8,29.41,NNE,15,2.0,6.0,63,0.00,,,0.00,Wunderground v.1.15,2013-03-25 23:05:00,
2013-03-25 19:07:00,40.3,28.7,29.42,NE,38,2.0,6.0,63,0.00,,,0.00,Wunderground v.1.15,2013-03-25 23:07:00,
2013-03-25 19:10:00,40.2,29.0,29.42,WNW,298,2.0,2.0,64,0.00,,,0.00,Wunderground v.1.15,2013-03-25 23:10:00,
2013-03-25 19:13:00,40.1,28.9,29.42,West,279,2.0,6.0,64,0.00,,,0.00,Wunderground v.1.15,2013-03-25 23:13:00,
2013-03-25 19:14:00,40.0,28.8,29.42,ESE,110,2.0,6.0,64,0.00,,,0.00,Wunderground v.1.15,2013-03-25 23:14:00,
2013-03-25 19:16:00,40.0,29.2,29.42,East,99,1.0,6.0,65,0.00,,,0.00,Wunderground v.1.15,2013-03-25 23:16:00,
2013-03-25 19:19:00,39.9,29.1,29.42,NE,40,1.0,6.0,65,0.00,,,0.00,Wunderground v.1.15,2013-03-25 23:19:00,
2013-03-25 19:20:00,39.9,29.1,29.42,North,9,1.0,6.0,65,0.00,,,0.00,Wunderground v.1.15,2013-03-25 23:20:00,
2013-03-25 19:22:00,39.8,29.0,29.42,NNE,30,1.0,10.0,65,0.00,,,0.00,Wunderground v.1.15,2013-03-25 23:22:00,
2013-03-25 19:25:00,39.8,29.0,29.42,North,5,2.0,10.0,65,0.00,,,0.00,Wunderground v.1.15,2013-03-25 23:25:00,
2013-03-25 19:26:00,39.8,29.0,29.42,ENE,76,3.0,10.0,65,0.00,,,0.00,Wunderground v.1.15,2013-03-25 23:26:00,
2013-03-25 19:31:00,39.7,29.3,29.42,North,11,5.0,5.0,66,0.00,,,0.00,Wunderground v.1.15,2013-03-25 23:31:00,
2013-03-25 19:32:00,39.6,29.2,29.42,North,355,4.0,6.0,66,0.00,,,0.00,Wunderground v.1.15,2013-03-25 23:32:00,
2013-03-25 19:35:00,39.6,29.2,29.42,NE,39,4.0,6.0,66,0.00,,,0.00,Wunderground v.1.15,2013-03-25 23:35:00,
2013-03-25 19:36:00,39.5,29.1,29.42,NNE,17,3.0,6.0,66,0.00,,,0.00,Wunderground v.1.15,2013-03-25 23:36:00,
2013-03-25 19:39:00,39.5,29.1,29.42,NNE,13,3.0,6.0,66,0.00,,,0.00,Wunderground v.1.15,2013-03-25 23:39:00,
2013-03-25 19:41:00,39.5,29.1,29.42,NE,41,3.0,6.0,66,0.00,,,0.00,Wunderground v.1.15,2013-03-25 23:41:00,
2013-03-25 19:43:00,39.6,29.2,29.42,NNE,29,3.0,6.0,66,0.00,,,0.00,Wunderground v.1.15,2013-03-25 23:43:00,
2013-03-25 19:44:00,39.6,28.8,29.43,NNE,28,3.0,6.0,65,0.00,,,0.00,Wunderground v.1.15,2013-03-25 23:44:00,
2013-03-25 19:48:00,39.6,28.8,29.43,NE,37,3.0,6.0,65,0.00,,,0.00,Wunderground v.1.15,2013-03-25 23:48:00,
2013-03-25 19:49:00,39.6,28.8,29.43,North,11,4.0,6.0,65,0.00,,,0.00,Wunderground v.1.15,2013-03-25 23:49:00,
2013-03-25 19:50:00,39.6,28.8,29.43,NE,46,4.0,4.0,65,0.00,,,0.00,Wunderground v.1.15,2013-03-25 23:50:00,
2013-03-25 19:52:00,39.5,28.7,29.43,NNE,30,4.0,7.0,65,0.00,,,0.00,Wunderground v.1.15,2013-03-25 23:52:00,
2013-03-25 19:55:00,39.6,28.8,29.43,NNE,28,5.0,7.0,65,0.00,,,0.00,Wunderground v.1.15,2013-03-25 23:55:00,
2013-03-25 19:57:00,39.6,28.8,29.43,North,10,5.0,7.0,65,0.00,,,0.00,Wunderground v.1.15,2013-03-25 23:57:00,
2013-03-25 20:00:00,39.5,29.1,29.43,NNE,25,4.0,4.0,66,0.00,,,0.00,Wunderground v.1.15,2013-03-26 00:00:00,
2013-03-25 20:01:00,39.5,29.1,29.44,NNE,24,4.0,9.0,66,0.00,,,0.00,Wunderground v.1.15,2013-03-26 00:01:00,
2013-03-25 20:02:00,39.5,29.1,29.44,NNE,31,3.0,9.0,66,0.00,,,0.00,Wunderground v.1.15,2013-03-26 00:02:00,
2013-03-25 20:03:00,39.5,29.1,29.44,NNE,30,3.0,9.0,66,0.00,,,0.00,Wunderground v.1.15,2013-03-26 00:03:00,
2013-03-25 20:06:00,39.4,29.0,29.44,ENE,61,3.0,9.0,66,0.00,,,0.00,Wunderground v.1.15,2013-03-26 00:06:00,
2013-03-25 20:08:00,39.3,28.9,29.44,NNE,28,3.0,9.0,66,0.00,,,0.00,Wunderground v.1.15,2013-03-26 00:08:00,
2013-03-25 20:12:00,39.2,28.8,29.44,NNE,28,3.0,9.0,66,0.00,,,0.00,Wunderground v.1.15,2013-03-26 00:12:00,
2013-03-25 20:13:00,39.1,28.7,29.44,North,355,3.0,9.0,66,0.00,,,0.00,Wunderground v.1.15,2013-03-26 00:13:00,
2013-03-25 20:14:00,39.1,28.7,29.44,NNE,31,3.0,9.0,66,0.00,,,0.00,Wunderground v.1.15,2013-03-26 00:14:00,
2013-03-25 20:18:00,39.0,28.6,29.44,North,9,3.0,9.0,66,0.00,,,0.00,Wunderground v.1.15,2013-03-26 00:18:00,
2013-03-25 20:19:00,39.0,28.6,29.44,North,5,3.0,9.0,66,0.00,,,0.00,Wunderground v.1.15,2013-03-26 00:19:00,
2013-03-25 20:21:00,38.9,28.5,29.44,NNE,22,3.0,9.0,66,0.00,,,0.00,Wunderground v.1.15,2013-03-26 00:21:00,
2013-03-25 20:25:00,39.0,28.6,29.44,NE,56,3.0,9.0,66,0.00,,,0.00,Wunderground v.1.15,2013-03-26 00:25:00,
2013-03-25 20:26:00,39.0,28.6,29.44,NE,38,4.0,9.0,66,0.00,,,0.00,Wunderground v.1.15,2013-03-26 00:26:00,
2013-03-25 20:27:00,38.9,28.5,29.44,NNE,26,4.0,9.0,66,0.00,,,0.00,Wunderground v.1.15,2013-03-26 00:27:00,
2013-03-25 20:29:00,38.9,28.5,29.45,NE,34,3.0,9.0,66,0.00,,,0.00,Wunderground v.1.15,2013-03-26 00:29:00,
2013-03-25 20:32:00,38.9,28.5,29.45,NE,34,3.0,9.0,66,0.00,,,0.00,Wunderground v.1.15,2013-03-26 00:32:00,
2013-03-25 20:34:00,38.8,28.8,29.45,NNE,31,3.0,9.0,67,0.00,,,0.00,Wunderground v.1.15,2013-03-26 00:34:00,
2013-03-25 20:38:00,38.8,28.4,29.45,NE,54,2.0,9.0,66,0.00,,,0.00,Wunderground v.1.15,2013-03-26 00:38:00,
2013-03-25 20:40:00,38.8,28.8,29.45,NNE,19,2.0,9.0,67,0.00,,,0.00,Wunderground v.1.15,2013-03-26 00:40:00,
2013-03-25 20:41:00,38.8,28.8,29.45,NNE,19,3.0,9.0,67,0.00,,,0.00,Wunderground v.1.15,2013-03-26 00:41:00,
2013-03-25 20:45:00,38.8,28.4,29.45,North,9,3.0,9.0,66,0.00,,,0.00,Wunderground v.1.15,2013-03-26 00:45:00,
2013-03-25 20:46:00,38.8,28.8,29.45,NE,53,3.0,9.0,67,0.00,,,0.00,Wunderground v.1.15,2013-03-26 00:46:00,
2013-03-25 20:49:00,38.8,28.4,29.45,NNE,22,2.0,9.0,66,0.00,,,0.00,Wunderground v.1.15,2013-03-26 00:49:00,
2013-03-25 20:50:00,38.8,28.8,29.46,NE,37,2.0,9.0,67,0.00,,,0.00,Wunderground v.1.15,2013-03-26 00:50:00,
2013-03-25 20:51:00,38.8,28.4,29.45,NNE,30,2.0,9.0,66,0.00,,,0.00,Wunderground v.1.15,2013-03-26 00:51:00,
2013-03-25 20:52:00,38.8,28.4,29.45,NE,37,2.0,9.0,66,0.00,,,0.00,Wunderground v.1.15,2013-03-26 00:52:00,
2013-03-25 20:56:00,38.8,28.4,29.46,NE,40,2.0,9.0,66,0.00,,,0.00,Wunderground v.1.15,2013-03-26 00:56:00,
2013-03-25 20:57:00,38.8,28.4,29.46,NNE,13,2.0,9.0,66,0.00,,,0.00,Wunderground v.1.15,2013-03-26 00:57:00,
2013-03-25 21:00:00,38.8,28.4,29.46,North,5,2.0,2.0,66,0.00,,,0.00,Wunderground v.1.15,2013-03-26 01:00:00,
2013-03-25 21:01:00,38.8,28.8,29.46,North,5,2.0,7.0,67,0.00,,,0.00,Wunderground v.1.15,2013-03-26 01:01:00,
2013-03-25 21:02:00,38.8,28.8,29.46,North,360,2.0,7.0,67,0.00,,,0.00,Wunderground v.1.15,2013-03-26 01:02:00,
2013-03-25 21:05:00,38.7,28.7,29.46,NE,47,2.0,7.0,67,0.00,,,0.00,Wunderground v.1.15,2013-03-26 01:05:00,
2013-03-25 21:07:00,38.7,28.7,29.46,NE,43,1.0,7.0,67,0.00,,,0.00,Wunderground v.1.15,2013-03-26 01:07:00,
2013-03-25 21:08:00,38.7,28.7,29.46,NE,43,1.0,7.0,67,0.00,,,0.00,Wunderground v.1.15,2013-03-26 01:08:00,
2013-03-25 21:10:00,38.7,28.7,29.46,NE,42,1.0,1.0,67,0.00,,,0.00,Wunderground v.1.15,2013-03-26 01:10:00,
2013-03-25 21:13:00,38.6,28.6,29.46,NE,37,1.0,7.0,67,0.00,,,0.00,Wunderground v.1.15,2013-03-26 01:13:00,
2013-03-25 21:15:00,38.6,28.6,29.46,NE,37,0.0,7.0,67,0.00,,,0.00,Wunderground v.1.15,2013-03-26 01:15:00,
2013-03-25 21:17:00,38.6,28.6,29.46,NE,37,0.0,7.0,67,0.00,,,0.00,Wunderground v.1.15,2013-03-26 01:17:00,
2013-03-25 21:22:00,38.5,28.5,29.46,NNE,21,1.0,7.0,67,0.00,,,0.00,Wunderground v.1.15,2013-03-26 01:22:00,
2013-03-25 21:23:00,38.5,28.5,29.46,NNE,21,1.0,7.0,67,0.00,,,0.00,Wunderground v.1.15,2013-03-26 01:23:00,
2013-03-25 21:24:00,38.5,28.5,29.47,NNE,21,1.0,7.0,67,0.00,,,0.00,Wunderground v.1.15,2013-03-26 01:24:00,
2013-03-25 21:28:00,38.4,28.8,29.46,NNE,19,1.0,7.0,68,0.00,,,0.00,Wunderground v.1.15,2013-03-26 01:28:00,
2013-03-25 21:29:00,38.4,28.8,29.46,NNE,19,1.0,7.0,68,0.00,,,0.00,Wunderground v.1.15,2013-03-26 01:29:00,
2013-03-25 21:30:00,38.4,28.8,29.47,NNE,19,1.0,1.0,68,0.00,,,0.00,Wunderground v.1.15,2013-03-26 01:30:00,
2013-03-25 21:31:00,38.4,28.8,29.46,NNE,19,1.0,7.0,68,0.00,,,0.00,Wunderground v.1.15,2013-03-26 01:31:00,
2013-03-25 21:36:00,38.4,28.8,29.47,NNE,19,0.0,7.0,68,0.00,,,0.00,Wunderground v.1.15,2013-03-26 01:36:00,
2013-03-25 21:38:00,38.3,28.7,29.47,NE,37,0.0,7.0,68,0.00,,,0.00,Wunderground v.1.15,2013-03-26 01:38:00,
2013-03-25 21:40:00,38.3,28.7,29.47,NE,36,0.0,7.0,68,0.00,,,0.00,Wunderground v.1.15,2013-03-26 01:40:00,
2013-03-25 21:43:00,38.2,28.6,29.47,NE,36,0.0,7.0,68,0.00,,,0.00,Wunderground v.1.15,2013-03-26 01:43:00,
2013-03-25 21:48:00,38.2,28.6,29.47,NE,34,1.0,7.0,68,0.00,,,0.00,Wunderground v.1.15,2013-03-26 01:48:00,
2013-03-25 21:50:00,38.2,28.6,29.47,NE,34,1.0,1.0,68,0.00,,,0.00,Wunderground v.1.15,2013-03-26 01:50:00,
2013-03-25 21:53:00,38.1,28.5,29.47,NE,34,1.0,7.0,68,0.00,,,0.00,Wunderground v.1.15,2013-03-26 01:53:00,
2013-03-25 21:55:00,38.0,28.4,29.47,NE,34,1.0,7.0,68,0.00,,,0.00,Wunderground v.1.15,2013-03-26 01:55:00,
2013-03-25 21:57:00,38.0,28.4,29.47,NE,34,1.0,7.0,68,0.00,,,0.00,Wunderground v.1.15,2013-03-26 01:57:00,
2013-03-25 21:59:00,38.0,28.4,29.47,NE,34,1.0,7.0,68,0.00,,,0.00,Wunderground v.1.15,2013-03-26 01:59:00,
2013-03-25 22:02:00,38.0,28.4,29.46,NE,34,1.0,4.0,68,0.00,,,0.00,Wunderground v.1.15,2013-03-26 02:02:00,
2013-03-25 22:04:00,37.9,28.3,29.46,NNE,30,1.0,4.0,68,0.00,,,0.00,Wunderground v.1.15,2013-03-26 02:04:00,
2013-03-25 22:05:00,37.9,28.3,29.47,NNE,30,1.0,4.0,68,0.00,,,0.00,Wunderground v.1.15,2013-03-26 02:05:00,
2013-03-25 22:07:00,37.9,28.3,29.46,North,5,1.0,4.0,68,0.00,,,0.00,Wunderground v.1.15,2013-03-26 02:07:00,
2013-03-25 22:09:00,37.9,28.3,29.46,NNE,16,2.0,6.0,68,0.00,,,0.00,Wunderground v.1.15,2013-03-26 02:09:00,
2013-03-25 22:11:00,37.9,28.6,29.46,NNE,32,2.0,4.0,69,0.00,,,0.00,Wunderground v.1.15,2013-03-26 02:11:00,
2013-03-25 22:12:00,37.9,28.6,29.46,NNE,32,3.0,4.0,69,0.00,,,0.00,Wunderground v.1.15,2013-03-26 02:12:00,
2013-03-25 22:14:00,37.9,28.6,29.46,NE,34,3.0,4.0,69,0.00,,,0.00,Wunderground v.1.15,2013-03-26 02:14:00,
2013-03-25 22:15:00,38.0,28.7,29.46,NE,50,3.0,4.0,69,0.00,,,0.00,Wunderground v.1.15,2013-03-26 02:15:00,
2013-03-25 22:16:00,38.0,28.7,29.46,NNE,15,3.0,4.0,69,0.00,,,0.00,Wunderground v.1.15,2013-03-26 02:16:00,
2013-03-25 22:18:00,38.0,28.7,29.46,NNE,28,3.0,4.0,69,0.00,,,0.00,Wunderground v.1.15,2013-03-26 02:18:00,
2013-03-25 22:20:00,38.0,28.7,29.46,NE,40,2.0,2.0,69,0.00,,,0.00,Wunderground v.1.15,2013-03-26 02:20:00,
2013-03-25 22:21:00,38.0,28.7,29.46,NE,40,2.0,4.0,69,0.00,,,0.00,Wunderground v.1.15,2013-03-26 02:21:00,
2013-03-25 22:23:00,38.0,28.7,29.46,NE,40,2.0,4.0,69,0.00,,,0.00,Wunderground v.1.15,2013-03-26 02:23:00,
2013-03-25 22:25:00,38.0,28.7,29.46,NE,34,2.0,4.0,69,0.00,,,0.00,Wunderground v.1.15,2013-03-26 02:25:00,
2013-03-25 22:28:00,37.9,28.6,29.46,NE,34,1.0,4.0,69,0.00,,,0.00,Wunderground v.1.15,2013-03-26 02:28:00,
2013-03-25 22:29:00,38.0,28.7,29.46,NE,35,1.0,4.0,69,0.00,,,0.00,Wunderground v.1.15,2013-03-26 02:29:00,
2013-03-25 22:30:00,37.9,28.6,29.46,NNE,32,1.0,4.0,69,0.00,,,0.00,Wunderground v.1.15,2013-03-26 02:30:00,
2013-03-25 22:35:00,37.9,28.6,29.46,NNE,33,1.0,4.0,69,0.00,,,0.00,Wunderground v.1.15,2013-03-26 02:35:00,
2013-03-25 22:38:00,37.8,28.9,29.46,NNE,33,1.0,4.0,70,0.00,,,0.00,Wunderground v.1.15,2013-03-26 02:38:00,
2013-03-25 22:42:00,37.7,28.8,29.46,NNE,33,0.0,4.0,70,0.00,,,0.00,Wunderground v.1.15,2013-03-26 02:42:00,
2013-03-25 22:44:00,37.7,28.8,29.46,NNE,30,0.0,4.0,70,0.00,,,0.00,Wunderground v.1.15,2013-03-26 02:44:00,
2013-03-25 22:48:00,37.5,28.9,29.46,NNE,18,1.0,4.0,71,0.00,,,0.00,Wunderground v.1.15,2013-03-26 02:48:00,
2013-03-25 22:49:00,37.5,28.9,29.46,NNE,31,1.0,4.0,71,0.00,,,0.00,Wunderground v.1.15,2013-03-26 02:49:00,
2013-03-25 22:52:00,37.5,29.3,29.46,NE,34,1.0,4.0,72,0.00,,,0.00,Wunderground v.1.15,2013-03-26 02:52:00,
2013-03-25 22:53:00,37.4,29.2,29.46,NNE,31,2.0,4.0,72,0.00,,,0.00,Wunderground v.1.15,2013-03-26 02:53:00,
2013-03-25 22:56:00,37.4,30.5,29.46,NNE,27,1.0,4.0,76,0.00,,,0.00,Wunderground v.1.15,2013-03-26 02:56:00,
2013-03-25 22:58:00,37.4,29.2,29.46,NNE,27,1.0,4.0,72,0.00,,,0.00,Wunderground v.1.15,2013-03-26 02:58:00,
2013-03-25 23:00:00,37.4,29.2,29.46,NNE,27,1.0,6.0,72,0.00,,,0.00,Wunderground v.1.15,2013-03-26 03:00:00,
2013-03-25 23:01:00,37.4,29.2,29.46,NNE,27,1.0,6.0,72,0.00,,,0.00,Wunderground v.1.15,2013-03-26 03:01:00,
2013-03-25 23:02:00,37.3,29.1,29.46,NNE,27,1.0,6.0,72,0.00,,,0.00,Wunderground v.1.15,2013-03-26 03:02:00,
2013-03-25 23:04:00,37.3,29.1,29.46,NNE,27,1.0,6.0,72,0.00,,,0.00,Wunderground v.1.15,2013-03-26 03:04:00,
2013-03-25 23:06:00,37.3,29.1,29.46,NNE,27,1.0,6.0,72,0.00,,,0.00,Wunderground v.1.15,2013-03-26 03:06:00,
2013-03-25 23:07:00,37.2,29.0,29.46,NNE,27,1.0,6.0,72,0.00,,,0.00,Wunderground v.1.15,2013-03-26 03:07:00,
2013-03-25 23:10:00,37.2,29.3,29.46,NNE,27,1.0,1.0,73,0.00,,,0.00,Wunderground v.1.15,2013-03-26 03:10:00,
2013-03-25 23:12:00,37.2,29.3,29.46,NNE,27,0.0,6.0,73,0.00,,,0.00,Wunderground v.1.15,2013-03-26 03:12:00,
2013-03-25 23:13:00,37.1,29.2,29.46,NNE,30,0.0,6.0,73,0.00,,,0.00,Wunderground v.1.15,2013-03-26 03:13:00,
2013-03-25 23:14:00,37.2,29.3,29.46,NNE,30,1.0,6.0,73,0.00,,,0.00,Wunderground v.1.15,2013-03-26 03:14:00,
2013-03-25 23:17:00,37.1,29.2,29.45,NNE,31,1.0,6.0,73,0.00,,,0.00,Wunderground v.1.15,2013-03-26 03:17:00,
2013-03-25 23:20:00,37.1,29.2,29.45,NNE,32,1.0,6.0,73,0.00,,,0.00,Wunderground v.1.15,2013-03-26 03:20:00,
2013-03-25 23:22:00,37.1,29.2,29.46,North,10,2.0,6.0,73,0.00,,,0.00,Wunderground v.1.15,2013-03-26 03:22:00,
2013-03-25 23:23:00,37.1,29.2,29.46,North,10,2.0,6.0,73,0.00,,,0.00,Wunderground v.1.15,2013-03-26 03:23:00,
2013-03-25 23:25:00,37.1,29.2,29.45,North,10,2.0,6.0,73,0.00,,,0.00,Wunderground v.1.15,2013-03-26 03:25:00,
2013-03-25 23:27:00,37.1,29.2,29.45,North,10,1.0,6.0,73,0.00,,,0.00,Wunderground v.1.15,2013-03-26 03:27:00,
2013-03-25 23:28:00,37.0,29.1,29.45,North,10,1.0,6.0,73,0.00,,,0.00,Wunderground v.1.15,2013-03-26 03:28:00,
2013-03-25 23:29:00,37.0,29.1,29.45,North,10,1.0,6.0,73,0.00,,,0.00,Wunderground v.1.15,2013-03-26 03:29:00,
2013-03-25 23:30:00,37.0,29.5,29.45,North,10,1.0,1.0,74,0.00,,,0.00,Wunderground v.1.15,2013-03-26 03:30:00,
2013-03-25 23:34:00,36.8,29.3,29.45,North,10,0.0,6.0,74,0.00,,,0.00,Wunderground v.1.15,2013-03-26 03:34:00,
2013-03-25 23:35:00,36.8,29.3,29.45,North,10,0.0,6.0,74,0.00,,,0.00,Wunderground v.1.15,2013-03-26 03:35:00,
2013-03-25 23:36:00,36.8,29.3,29.45,North,10,0.0,6.0,74,0.00,,,0.00,Wunderground v.1.15,2013-03-26 03:36:00,
2013-03-25 23:37:00,36.7,29.2,29.45,North,10,0.0,6.0,74,0.00,,,0.00,Wunderground v.1.15,2013-03-26 03:37:00,
2013-03-25 23:40:00,36.7,29.2,29.45,North,10,0.0,6.0,74,0.00,,,0.00,Wunderground v.1.15,2013-03-26 03:40:00,
2013-03-25 23:43:00,36.6,29.4,29.45,North,10,0.0,6.0,75,0.00,,,0.00,Wunderground v.1.15,2013-03-26 03:43:00,
2013-03-25 23:44:00,36.5,29.3,29.45,North,10,0.0,6.0,75,0.00,,,0.00,Wunderground v.1.15,2013-03-26 03:44:00,
2013-03-25 23:46:00,36.5,29.3,29.45,North,10,0.0,6.0,75,0.00,,,0.00,Wunderground v.1.15,2013-03-26 03:46:00,
2013-03-25 23:47:00,36.5,29.3,29.45,North,10,0.0,6.0,75,0.00,,,0.00,Wunderground v.1.15,2013-03-26 03:47:00,
2013-03-25 23:51:00,36.5,29.3,29.45,North,10,0.0,6.0,75,0.00,,,0.00,Wunderground v.1.15,2013-03-26 03:51:00,
2013-03-25 23:52:00,36.5,29.3,29.45,North,10,0.0,6.0,75,0.00,,,0.00,Wunderground v.1.15,2013-03-26 03:52:00,
2013-03-25 23:54:00,36.5,29.3,29.45,North,10,0.0,6.0,75,0.00,,,0.00,Wunderground v.1.15,2013-03-26 03:54:00,
2013-03-25 23:57:00,36.4,29.2,29.45,North,10,0.0,6.0,75,0.00,,,0.00,Wunderground v.1.15,2013-03-26 03:57:00,
2013-03-25 23:58:00,36.4,29.2,29.45,North,10,0.0,6.0,75,0.00,,,0.00,Wunderground v.1.15,2013-03-26 03:58:00,